UAE545 KMIA-OMDB

Flight info

Callsign UAE545
Flight time 14h 36m
Altitude 30000
Route FOLZZ3 ALYRA DCT GRUBR/N0502F310 Y299 SEELO DCT WAALT Q131 KALDA DCT ZJAAY Q167 RIFLE DCT YAHOO DCT WHALE N93B SUPRY/M084F330 NATY ELSOX DCT TAKAS/N0495F330 DCT ALUTA DCT KORER/N0486F350 DCT LEMKA DCT BEBIX DCT LERGA DCT TOZOT DCT OTROT DCT RETNO DCT KOLON DCT RAPUR DCT RATAP DCT BTA DCT DOKAR DCT SUNEV DCT PNZ DCT PEVIR DCT DELER DCT AGNIS DCT CDC DCT BELIX DCT SALUN N705 MMA/N0485F370 P751 DASUM Y234 FYM M872 BDB Y214 RAPMA DCT KUVSO DCT KATIT DCT PEKEM M628 RIGIL G783 ELUDA/N0502F350 G783 ASPED Q308 KIPOK Q568 IMPED
Aircraft B77W/H-SDE1E2E3FGHIJ2J3J4J5M1RWXY/LB1D1

Departure

Time 2026-05-03 23:56
Airport Miami International Airport (KMIA)

Arrival

Time 2026-05-04 14:32
Airport Dubai International Airport (OMDB)
Time Latitude Longitude Altitude Speed Heading
2026-05-03 22:49 25.79108 -80.27427 21 ft 0 kts 111°
2026-05-03 23:23 25.79110 -80.27432 20 ft 3 kts 110°
2026-05-03 23:23 25.79117 -80.27460 20 ft 4 kts 107°
2026-05-03 23:23 25.79128 -80.27481 23 ft 3 kts 137°
2026-05-03 23:24 25.79149 -80.27496 23 ft 4 kts 174°
2026-05-03 23:24 25.79174 -80.27496 23 ft 2 kts 177°
2026-05-03 23:24 25.79180 -80.27496 22 ft 0 kts 177°
2026-05-03 23:42 25.79179 -80.27496 20 ft 1 kts 177°
2026-05-03 23:42 25.79139 -80.27495 20 ft 12 kts 178°
2026-05-03 23:43 25.79049 -80.27490 22 ft 13 kts 177°
2026-05-03 23:43 25.78959 -80.27488 22 ft 13 kts 187°
2026-05-03 23:43 25.78904 -80.27560 21 ft 13 kts 252°
2026-05-03 23:43 25.78880 -80.27655 20 ft 13 kts 265°
2026-05-03 23:44 25.78878 -80.27752 20 ft 13 kts 268°
2026-05-03 23:44 25.78874 -80.27848 20 ft 13 kts 267°
2026-05-03 23:44 25.78872 -80.27905 22 ft 1 kts 269°
2026-05-03 23:44 25.78872 -80.27914 23 ft 2 kts 271°
2026-05-03 23:45 25.78879 -80.27954 22 ft 9 kts 289°
2026-05-03 23:45 25.78908 -80.28016 25 ft 6 kts 297°
2026-05-03 23:45 25.78909 -80.28018 25 ft 0 kts 297°
2026-05-03 23:45 25.78910 -80.28020 25 ft 3 kts 297°
2026-05-03 23:46 25.78937 -80.28075 23 ft 12 kts 299°
2026-05-03 23:46 25.78987 -80.28173 25 ft 19 kts 299°
2026-05-03 23:46 25.79057 -80.28312 24 ft 24 kts 300°
2026-05-03 23:46 25.79110 -80.28411 20 ft 1 kts 304°
2026-05-03 23:47 25.79131 -80.28440 21 ft 14 kts 309°
2026-05-03 23:47 25.79209 -80.28578 19 ft 24 kts 300°
2026-05-03 23:47 25.79304 -80.28763 19 ft 31 kts 300°
2026-05-03 23:47 25.79376 -80.28905 19 ft 32 kts 300°
2026-05-03 23:48 25.79486 -80.29120 20 ft 30 kts 300°
2026-05-03 23:48 25.79568 -80.29278 20 ft 22 kts 299°
2026-05-03 23:48 25.79637 -80.29414 20 ft 20 kts 300°
2026-05-03 23:48 25.79705 -80.29547 19 ft 20 kts 299°
2026-05-03 23:49 25.79772 -80.29678 19 ft 18 kts 300°
2026-05-03 23:49 25.79834 -80.29800 19 ft 18 kts 299°
2026-05-03 23:49 25.79896 -80.29922 19 ft 18 kts 299°
2026-05-03 23:49 25.79911 -80.29951 19 ft 1 kts 299°
2026-05-03 23:50 25.79913 -80.29955 19 ft 0 kts 299°
2026-05-03 23:52 25.79927 -80.29983 18 ft 12 kts 300°
2026-05-03 23:52 25.79979 -80.30083 18 ft 0 kts 299°
2026-05-03 23:53 25.79979 -80.30084 18 ft 1 kts 299°
2026-05-03 23:54 25.79986 -80.30096 19 ft 3 kts 303°
2026-05-03 23:54 25.80010 -80.30115 19 ft 5 kts 335°
2026-05-03 23:54 25.80053 -80.30116 19 ft 7 kts 28°
2026-05-03 23:54 25.80071 -80.30072 18 ft 0 kts 84°
2026-05-03 23:55 25.80071 -80.30064 18 ft 7 kts 83°
2026-05-03 23:55 25.80084 -80.29799 18 ft 73 kts 87°
2026-05-03 23:55 25.80120 -80.28935 26 ft 149 kts 88°
2026-05-03 23:56 25.80172 -80.27541 135 ft 200 kts 86°
2026-05-03 23:56 25.80208 -80.26000 790 ft 203 kts 89°
2026-05-03 23:56 25.80056 -80.24393 1318 ft 217 kts 110°
2026-05-03 23:56 25.79275 -80.22963 1963 ft 220 kts 124°
2026-05-03 23:57 25.78456 -80.21475 2170 ft 232 kts 118°
2026-05-03 23:57 25.77683 -80.19861 2490 ft 240 kts 117°
2026-05-03 23:57 25.76912 -80.18202 2923 ft 243 kts 118°
2026-05-03 23:57 25.76095 -80.16548 3324 ft 249 kts 120°
2026-05-03 23:58 25.75232 -80.14817 3641 ft 262 kts 120°
2026-05-03 23:58 25.74371 -80.12984 3875 ft 276 kts 110°
2026-05-03 23:58 25.74174 -80.10850 4203 ft 287 kts 76°
2026-05-03 23:58 25.75063 -80.08877 4651 ft 289 kts 47°
2026-05-03 23:59 25.76413 -80.07205 5143 ft 294 kts 46°
2026-05-03 23:59 25.77781 -80.05498 5742 ft 298 kts 47°
2026-05-03 23:59 25.79163 -80.03767 6328 ft 301 kts 46°
2026-05-03 23:59 25.80561 -80.02016 6895 ft 305 kts 47°
2026-05-04 00:00 25.81969 -80.00243 7478 ft 307 kts 47°
2026-05-04 00:00 25.83387 -79.98454 8043 ft 310 kts 47°
2026-05-04 00:00 25.84818 -79.96642 8610 ft 313 kts 47°
2026-05-04 00:00 25.86259 -79.94815 9190 ft 316 kts 47°
2026-05-04 00:01 25.87713 -79.92971 9777 ft 319 kts 47°
2026-05-04 00:01 25.89181 -79.91105 10269 ft 323 kts 47°
2026-05-04 00:01 25.90677 -79.89206 10453 ft 341 kts 46°
2026-05-04 00:01 25.92283 -79.87166 10602 ft 359 kts 47°
2026-05-04 00:02 25.93993 -79.84992 10756 ft 378 kts 47°
2026-05-04 00:02 25.95735 -79.82772 10989 ft 393 kts 47°
2026-05-04 00:02 25.97555 -79.80448 11394 ft 403 kts 47°
2026-05-04 00:02 25.99410 -79.78081 11896 ft 409 kts 47°
2026-05-04 00:03 26.01265 -79.75703 12329 ft 405 kts 47°
2026-05-04 00:03 26.03146 -79.73285 12338 ft 408 kts 47°
2026-05-04 00:03 26.04977 -79.70936 12355 ft 410 kts 47°
2026-05-04 00:03 26.06853 -79.68536 12371 ft 412 kts 47°
2026-05-04 00:04 26.08723 -79.66144 12621 ft 406 kts 47°
2026-05-04 00:04 26.10558 -79.63787 12962 ft 399 kts 48°
2026-05-04 00:04 26.12269 -79.61351 13296 ft 404 kts 53°
2026-05-04 00:04 26.13906 -79.58764 13691 ft 413 kts 54°
2026-05-04 00:05 26.15544 -79.56105 14094 ft 420 kts 54°
2026-05-04 00:05 26.17216 -79.53404 14529 ft 426 kts 54°
2026-05-04 00:05 26.18923 -79.50674 14968 ft 433 kts 54°
2026-05-04 00:05 26.20663 -79.47911 15403 ft 439 kts 54°
2026-05-04 00:06 26.22427 -79.45124 15843 ft 444 kts 53°
2026-05-04 00:06 26.24216 -79.42310 16018 ft 446 kts 54°
2026-05-04 00:06 26.26017 -79.39472 16285 ft 451 kts 54°
2026-05-04 00:06 26.27903 -79.36690 16778 ft 448 kts 44°
2026-05-04 00:07 26.30372 -79.34582 17144 ft 447 kts 24°
2026-05-04 00:07 26.33265 -79.33419 17653 ft 439 kts 10°
2026-05-04 00:07 26.36247 -79.32578 18085 ft 445 kts 10°
2026-05-04 00:07 26.39258 -79.31701 18515 ft 449 kts 11°
2026-05-04 00:08 26.42294 -79.30797 18981 ft 452 kts 11°
2026-05-04 00:08 26.45332 -79.29881 19421 ft 455 kts 11°
2026-05-04 00:08 26.48402 -79.28948 19853 ft 459 kts 10°
2026-05-04 00:08 26.51498 -79.28003 20229 ft 463 kts 10°
2026-05-04 00:09 26.54618 -79.27048 20657 ft 466 kts 10°
2026-05-04 00:09 26.57749 -79.26087 21096 ft 469 kts 10°
2026-05-04 00:09 26.60912 -79.25115 21515 ft 472 kts 10°
2026-05-04 00:09 26.64092 -79.24137 21925 ft 476 kts 10°
2026-05-04 00:10 26.67292 -79.23153 22320 ft 479 kts 10°
2026-05-04 00:10 26.70519 -79.22160 22700 ft 482 kts 10°
2026-05-04 00:10 26.73765 -79.21162 23074 ft 486 kts
2026-05-04 00:10 26.77035 -79.20155 23470 ft 489 kts
2026-05-04 00:11 26.80328 -79.19140 23782 ft 492 kts
2026-05-04 00:11 26.83630 -79.18123 24089 ft 495 kts
2026-05-04 00:11 26.86960 -79.17095 24412 ft 497 kts
2026-05-04 00:11 26.90305 -79.16062 24742 ft 499 kts
2026-05-04 00:12 26.93662 -79.15024 25052 ft 502 kts
2026-05-04 00:12 26.97045 -79.13979 25354 ft 505 kts
2026-05-04 00:12 27.00434 -79.12931 25658 ft 507 kts
2026-05-04 00:12 27.03687 -79.11924 25943 ft 510 kts
2026-05-04 00:13 27.07160 -79.10849 26236 ft 513 kts
2026-05-04 00:13 27.10617 -79.09779 26451 ft 518 kts
2026-05-04 00:13 27.14097 -79.08701 26729 ft 520 kts
2026-05-04 00:13 27.17549 -79.07630 27033 ft 522 kts
2026-05-04 00:14 27.21050 -79.06542 27318 ft 524 kts
2026-05-04 00:14 27.24576 -79.05446 27605 ft 526 kts 10°
2026-05-04 00:14 27.28094 -79.04350 28048 ft 524 kts 10°
2026-05-04 00:14 27.31608 -79.03255 28352 ft 525 kts 10°
2026-05-04 00:15 27.35139 -79.02156 28544 ft 529 kts 10°
2026-05-04 00:15 27.38701 -79.01049 28723 ft 532 kts 10°
2026-05-04 00:15 27.42279 -78.99935 28958 ft 534 kts 10°
2026-05-04 00:15 27.45865 -78.98817 29197 ft 536 kts 10°
2026-05-04 00:16 27.49457 -78.97695 29434 ft 537 kts 10°
2026-05-04 00:16 27.53067 -78.96568 29645 ft 539 kts 10°
2026-05-04 00:16 27.56684 -78.95437 29860 ft 540 kts 10°
2026-05-04 00:16 27.60306 -78.94304 29997 ft 543 kts 10°
2026-05-04 00:17 27.67620 -78.92015 30057 ft 549 kts
2026-05-04 00:17 27.74998 -78.89703 30055 ft 551 kts
2026-05-04 00:18 27.82391 -78.87379 30055 ft 551 kts
2026-05-04 00:18 27.89765 -78.85059 30059 ft 550 kts
2026-05-04 00:19 27.97146 -78.82736 30060 ft 551 kts
2026-05-04 00:19 28.04542 -78.80405 30067 ft 552 kts
2026-05-04 00:20 28.11949 -78.78067 30068 ft 553 kts
2026-05-04 00:20 28.19369 -78.75721 30066 ft 554 kts
2026-05-04 00:21 28.26751 -78.73383 30071 ft 555 kts
2026-05-04 00:21 28.34180 -78.71027 30075 ft 554 kts
2026-05-04 00:22 28.41607 -78.68667 30066 ft 554 kts
2026-05-04 00:22 28.49024 -78.66308 30106 ft 553 kts
2026-05-04 00:23 28.56441 -78.63947 30068 ft 553 kts
2026-05-04 00:23 28.63855 -78.61583 30067 ft 553 kts
2026-05-04 00:24 28.71258 -78.59218 30091 ft 553 kts
2026-05-04 00:24 28.78670 -78.56847 30111 ft 553 kts
2026-05-04 00:25 28.86077 -78.54474 30097 ft 553 kts
2026-05-04 00:25 28.93252 -78.52172 30091 ft 553 kts
2026-05-04 00:26 29.00645 -78.49797 30099 ft 553 kts
2026-05-04 00:26 29.08050 -78.47414 30116 ft 553 kts
2026-05-04 00:27 29.15455 -78.45028 30108 ft 553 kts
2026-05-04 00:27 29.22857 -78.42638 30100 ft 552 kts
2026-05-04 00:28 29.30247 -78.40249 30105 ft 552 kts
2026-05-04 00:28 29.37638 -78.37857 30100 ft 552 kts
2026-05-04 00:29 29.45048 -78.35699 30098 ft 542 kts 359°
2026-05-04 00:29 29.48757 -78.35420 30100 ft 530 kts 350°
2026-05-04 00:29 29.52363 -78.35687 30106 ft 524 kts 343°
2026-05-04 00:30 29.58976 -78.37504 30138 ft 513 kts 334°
2026-05-04 00:30 29.65854 -78.39859 30135 ft 517 kts 334°
2026-05-04 00:31 29.72781 -78.42152 30124 ft 518 kts 335°
2026-05-04 00:31 29.79710 -78.44401 30115 ft 516 kts 335°
2026-05-04 00:32 29.86613 -78.46642 30116 ft 514 kts 335°
2026-05-04 00:32 29.93431 -78.48868 30127 ft 513 kts 335°
2026-05-04 00:33 30.03708 -78.52231 30129 ft 511 kts 334°
2026-05-04 00:34 30.10569 -78.54434 30130 ft 515 kts 338°
2026-05-04 00:34 30.16619 -78.55328 30138 ft 531 kts 349°
2026-05-04 00:35 30.24094 -78.54763 30144 ft 545 kts
2026-05-04 00:35 30.31609 -78.53526 30137 ft 545 kts
2026-05-04 00:36 30.39125 -78.52404 30137 ft 544 kts 359°
2026-05-04 00:36 30.46650 -78.51297 30172 ft 545 kts
2026-05-04 00:37 30.54171 -78.50073 30138 ft 546 kts
2026-05-04 00:37 30.61635 -78.48836 30140 ft 545 kts
2026-05-04 00:38 30.69140 -78.47608 30144 ft 544 kts
2026-05-04 00:38 30.76640 -78.46391 30180 ft 544 kts
2026-05-04 00:39 30.84126 -78.45176 30157 ft 543 kts
2026-05-04 00:39 30.91596 -78.43960 30146 ft 541 kts
2026-05-04 00:40 30.99053 -78.42743 30146 ft 540 kts
2026-05-04 00:40 31.06500 -78.41527 30151 ft 540 kts
2026-05-04 00:41 31.13938 -78.40311 30157 ft 540 kts
2026-05-04 00:41 31.21376 -78.39092 30152 ft 540 kts
2026-05-04 00:42 31.28816 -78.37870 30188 ft 540 kts
2026-05-04 00:42 31.36256 -78.36647 30159 ft 540 kts
2026-05-04 00:43 31.43697 -78.35421 30155 ft 539 kts
2026-05-04 00:43 31.51127 -78.34196 30155 ft 539 kts
2026-05-04 00:44 31.58546 -78.32970 30159 ft 539 kts
2026-05-04 00:44 31.65959 -78.31743 30160 ft 537 kts
2026-05-04 00:45 31.73344 -78.30518 30149 ft 535 kts
2026-05-04 00:45 31.80706 -78.29297 30192 ft 534 kts
2026-05-04 00:46 31.88018 -78.28081 30164 ft 534 kts
2026-05-04 00:46 31.95363 -78.26858 30156 ft 533 kts
2026-05-04 00:47 32.02701 -78.25634 30159 ft 533 kts
2026-05-04 00:47 32.10032 -78.24174 30195 ft 535 kts
2026-05-04 00:48 32.17335 -78.22523 30159 ft 533 kts
2026-05-04 00:48 32.24607 -78.20895 30152 ft 530 kts
2026-05-04 00:49 32.31855 -78.19316 30160 ft 529 kts
2026-05-04 00:49 32.39097 -78.17754 30161 ft 528 kts
2026-05-04 00:50 32.46321 -78.16193 30156 ft 528 kts
2026-05-04 00:50 32.53541 -78.14625 30156 ft 528 kts
2026-05-04 00:51 32.60762 -78.13054 30192 ft 528 kts
2026-05-04 00:51 32.67993 -78.11556 30122 ft 527 kts
2026-05-04 00:52 32.75206 -78.09959 30131 ft 528 kts
2026-05-04 00:52 32.82419 -78.08333 30158 ft 528 kts
2026-05-04 00:53 32.89648 -78.06736 30153 ft 528 kts
2026-05-04 00:53 32.96888 -78.05150 30153 ft 529 kts
2026-05-04 00:54 33.04082 -78.03572 30143 ft 529 kts
2026-05-04 00:54 33.11321 -78.01979 30186 ft 529 kts
2026-05-04 00:55 33.18571 -78.00380 30150 ft 530 kts
2026-05-04 00:55 33.25816 -77.98779 30137 ft 529 kts
2026-05-04 00:56 33.33053 -77.97177 30133 ft 528 kts
2026-05-04 00:56 33.40276 -77.95576 30142 ft 528 kts
2026-05-04 00:57 33.47506 -77.93970 30130 ft 528 kts
2026-05-04 00:57 33.54720 -77.92367 30127 ft 527 kts
2026-05-04 00:58 33.61928 -77.90761 30131 ft 527 kts
2026-05-04 00:58 33.69148 -77.89150 30139 ft 528 kts
2026-05-04 00:59 33.76365 -77.87536 30120 ft 527 kts
2026-05-04 00:59 33.83577 -77.85865 30119 ft 528 kts
2026-05-04 01:00 33.90773 -77.84034 30131 ft 529 kts
2026-05-04 01:00 33.97974 -77.82181 30126 ft 528 kts
2026-05-04 01:01 34.05155 -77.80356 30116 ft 527 kts
2026-05-04 01:01 34.12335 -77.78542 30144 ft 527 kts
2026-05-04 01:02 34.19508 -77.76726 30114 ft 526 kts
2026-05-04 01:02 34.26612 -77.74922 30102 ft 525 kts
2026-05-04 01:03 34.33750 -77.73105 30100 ft 524 kts
2026-05-04 01:03 34.40883 -77.71289 30409 ft 522 kts
2026-05-04 01:03 34.44435 -77.70381 30647 ft 521 kts
2026-05-04 01:04 34.47981 -77.69477 30883 ft 521 kts
2026-05-04 01:04 34.51541 -77.68568 31033 ft 524 kts
2026-05-04 01:04 34.55101 -77.67477 31100 ft 532 kts 10°
2026-05-04 01:05 34.62038 -77.64068 31153 ft 541 kts 20°
2026-05-04 01:05 34.68731 -77.59974 31128 ft 535 kts 21°
2026-05-04 01:06 34.75365 -77.55919 31134 ft 536 kts 20°
2026-05-04 01:06 34.82093 -77.51881 31138 ft 542 kts 20°
2026-05-04 01:07 34.88853 -77.47834 31142 ft 536 kts 20°
2026-05-04 01:07 34.95466 -77.43856 31122 ft 527 kts 20°
2026-05-04 01:08 35.02045 -77.39903 31181 ft 530 kts 20°
2026-05-04 01:08 35.05355 -77.37912 31397 ft 530 kts 20°
2026-05-04 01:08 35.08662 -77.35918 31679 ft 529 kts 20°
2026-05-04 01:09 35.15280 -77.31923 31709 ft 530 kts 20°
2026-05-04 01:09 35.21848 -77.27946 31666 ft 526 kts 20°
2026-05-04 01:09 35.25132 -77.25957 31436 ft 527 kts 20°
2026-05-04 01:10 35.28409 -77.23970 31200 ft 524 kts 20°
2026-05-04 01:10 35.34883 -77.20034 31118 ft 517 kts 20°
2026-05-04 01:11 35.41363 -77.16099 31135 ft 523 kts 20°
2026-05-04 01:11 35.47896 -77.12122 31132 ft 525 kts 20°
2026-05-04 01:12 35.54431 -77.08129 31127 ft 524 kts 20°
2026-05-04 01:12 35.60956 -77.04134 31134 ft 524 kts 20°
2026-05-04 01:13 35.67469 -77.00137 31130 ft 523 kts 20°
2026-05-04 01:13 35.73980 -76.96142 31118 ft 523 kts 20°
2026-05-04 01:14 35.80497 -76.92143 31141 ft 524 kts 20°
2026-05-04 01:14 35.87021 -76.88120 31110 ft 524 kts 20°
2026-05-04 01:15 35.93536 -76.84061 31099 ft 526 kts 21°
2026-05-04 01:15 35.99990 -76.79759 31127 ft 528 kts 22°
2026-05-04 01:16 36.06433 -76.75373 31129 ft 529 kts 22°
2026-05-04 01:16 36.12879 -76.71010 31120 ft 527 kts 21°
2026-05-04 01:17 36.19315 -76.66676 31109 ft 526 kts 21°
2026-05-04 01:17 36.25736 -76.62352 31135 ft 525 kts 21°
2026-05-04 01:18 36.32153 -76.58023 31101 ft 524 kts 21°
2026-05-04 01:18 36.38547 -76.53691 31092 ft 524 kts 21°
2026-05-04 01:19 36.44899 -76.49386 31080 ft 523 kts 21°
2026-05-04 01:19 36.50256 -76.45756 31103 ft 524 kts 21°
2026-05-04 01:20 36.56663 -76.41400 31123 ft 525 kts 21°
2026-05-04 01:20 36.64111 -76.36321 31120 ft 525 kts 21°
2026-05-04 01:21 36.69479 -76.32654 31156 ft 526 kts 21°
2026-05-04 01:21 36.75895 -76.28264 31137 ft 526 kts 21°
2026-05-04 01:22 36.82303 -76.23871 31096 ft 525 kts 21°
2026-05-04 01:22 36.88706 -76.19473 31108 ft 525 kts 21°
2026-05-04 01:23 36.95107 -76.15069 31109 ft 525 kts 20°
2026-05-04 01:23 37.01502 -76.10659 31101 ft 525 kts 20°
2026-05-04 01:24 37.07842 -76.06279 31108 ft 524 kts 20°
2026-05-04 01:24 37.14263 -76.01982 31125 ft 520 kts 17°
2026-05-04 01:25 37.20834 -75.98283 31113 ft 517 kts 14°
2026-05-04 01:25 37.27444 -75.94706 31103 ft 517 kts 14°
2026-05-04 01:26 37.34033 -75.91058 31097 ft 518 kts 15°
2026-05-04 01:26 37.40611 -75.87352 31103 ft 519 kts 15°
2026-05-04 01:27 37.47191 -75.83629 31100 ft 518 kts 15°
2026-05-04 01:27 37.53765 -75.79908 31099 ft 518 kts 15°
2026-05-04 01:28 37.60334 -75.76185 31107 ft 517 kts 15°
2026-05-04 01:28 37.66900 -75.72459 31101 ft 517 kts 15°
2026-05-04 01:29 37.73460 -75.68727 31101 ft 518 kts 15°
2026-05-04 01:29 37.80032 -75.64981 31116 ft 518 kts 14°
2026-05-04 01:30 37.86495 -75.60795 31081 ft 531 kts 24°
2026-05-04 01:30 37.92592 -75.55443 31096 ft 534 kts 27°
2026-05-04 01:31 37.98676 -75.50052 31065 ft 532 kts 26°
2026-05-04 01:31 38.04784 -75.44748 31067 ft 532 kts 26°
2026-05-04 01:32 38.10823 -75.39263 31070 ft 535 kts 28°
2026-05-04 01:32 38.16763 -75.33566 31067 ft 535 kts 28°
2026-05-04 01:33 38.22704 -75.27888 31069 ft 534 kts 28°
2026-05-04 01:33 38.28660 -75.22244 31078 ft 533 kts 28°
2026-05-04 01:34 38.34611 -75.16606 31075 ft 533 kts 28°
2026-05-04 01:34 38.40559 -75.10951 31130 ft 533 kts 28°
2026-05-04 01:35 38.46501 -75.05277 31069 ft 534 kts 29°
2026-05-04 01:35 38.52184 -74.99062 31056 ft 539 kts 33°
2026-05-04 01:36 38.57869 -74.92862 31049 ft 535 kts 30°
2026-05-04 01:36 38.63693 -74.86952 31053 ft 535 kts 30°
2026-05-04 01:37 38.69487 -74.80976 31053 ft 535 kts 31°
2026-05-04 01:37 38.75250 -74.74934 31059 ft 536 kts 32°
2026-05-04 01:38 38.80827 -74.68540 31110 ft 539 kts 35°
2026-05-04 01:38 38.86295 -74.62056 31058 ft 538 kts 35°
2026-05-04 01:39 38.91840 -74.55544 31043 ft 536 kts 34°
2026-05-04 01:39 38.97341 -74.49226 31045 ft 532 kts 32°
2026-05-04 01:40 39.03011 -74.43167 31039 ft 530 kts 31°
2026-05-04 01:40 39.08690 -74.37131 31033 ft 529 kts 32°
2026-05-04 01:41 39.14333 -74.31041 31024 ft 530 kts 32°
2026-05-04 01:41 39.19967 -74.24910 31090 ft 530 kts 32°
2026-05-04 01:42 39.25600 -74.18766 31034 ft 529 kts 32°
2026-05-04 01:42 39.31195 -74.12655 31028 ft 525 kts 32°
2026-05-04 01:43 39.36761 -74.06567 31026 ft 523 kts 32°
2026-05-04 01:43 39.42302 -74.00494 31037 ft 521 kts 32°
2026-05-04 01:44 39.47827 -73.94440 31021 ft 520 kts 32°
2026-05-04 01:44 39.53346 -73.88386 31029 ft 520 kts 32°
2026-05-04 01:45 39.58869 -73.82311 31030 ft 521 kts 32°
2026-05-04 01:45 39.67172 -73.73149 31025 ft 523 kts 32°
2026-05-04 01:46 39.72718 -73.67011 31026 ft 524 kts 33°
2026-05-04 01:46 39.78272 -73.60851 31034 ft 525 kts 33°
2026-05-04 01:47 39.83827 -73.54675 31017 ft 524 kts 33°
2026-05-04 01:47 39.89357 -73.48518 31017 ft 523 kts 33°
2026-05-04 01:48 39.94844 -73.42397 31043 ft 522 kts 33°
2026-05-04 01:48 40.00389 -73.36196 31011 ft 521 kts 33°
2026-05-04 01:49 40.05838 -73.30089 30998 ft 520 kts 33°
2026-05-04 01:49 40.11317 -73.23936 31003 ft 519 kts 34°
2026-05-04 01:50 40.16785 -73.17775 30996 ft 519 kts 34°
2026-05-04 01:50 40.22241 -73.11611 30984 ft 518 kts 34°
2026-05-04 01:51 40.27689 -73.05445 30980 ft 517 kts 34°
2026-05-04 01:51 40.33129 -72.99271 30990 ft 518 kts 35°
2026-05-04 01:52 40.38562 -72.93090 30978 ft 517 kts 35°
2026-05-04 01:52 40.43988 -72.86902 30974 ft 516 kts 35°
2026-05-04 01:53 40.49393 -72.80725 30998 ft 516 kts 36°
2026-05-04 01:53 40.54553 -72.74815 30970 ft 515 kts 36°
2026-05-04 01:54 40.59949 -72.68622 30961 ft 514 kts 36°
2026-05-04 01:54 40.65298 -72.62407 30955 ft 514 kts 40°
2026-05-04 01:55 40.67597 -72.58756 30971 ft 522 kts 53°
2026-05-04 01:55 40.69323 -72.54515 30969 ft 528 kts 65°
2026-05-04 01:55 40.70438 -72.49886 30934 ft 532 kts 77°
2026-05-04 01:55 40.71096 -72.45093 30980 ft 532 kts 78°
2026-05-04 01:56 40.72363 -72.35454 30971 ft 534 kts 78°
2026-05-04 01:56 40.73692 -72.25798 30958 ft 536 kts 77°
2026-05-04 01:57 40.75063 -72.16188 30959 ft 537 kts 77°
2026-05-04 01:57 40.76450 -72.06506 30962 ft 538 kts 77°
2026-05-04 01:58 40.77826 -71.96814 30969 ft 537 kts 77°
2026-05-04 01:58 40.79189 -71.87125 30948 ft 536 kts 77°
2026-05-04 01:59 40.80537 -71.77467 30945 ft 534 kts 78°
2026-05-04 01:59 40.81875 -71.67830 30945 ft 533 kts 78°
2026-05-04 02:00 40.83202 -71.58201 30947 ft 533 kts 78°
2026-05-04 02:00 40.84526 -71.48547 30943 ft 535 kts 78°
2026-05-04 02:01 40.85847 -71.38850 30952 ft 538 kts 78°
2026-05-04 02:01 40.87164 -71.29113 30976 ft 540 kts 78°
2026-05-04 02:02 40.88477 -71.19341 30942 ft 540 kts 78°
2026-05-04 02:02 40.89779 -71.09579 30941 ft 538 kts 78°
2026-05-04 02:03 40.91069 -70.99848 30936 ft 537 kts 78°
2026-05-04 02:03 40.92348 -70.90134 30932 ft 536 kts 78°
2026-05-04 02:04 40.93617 -70.80437 30933 ft 535 kts 78°
2026-05-04 02:04 40.94876 -70.70742 30940 ft 535 kts 78°
2026-05-04 02:05 40.96127 -70.61042 30953 ft 535 kts 78°
2026-05-04 02:05 40.97371 -70.51333 30935 ft 535 kts 78°
2026-05-04 02:06 40.98397 -70.43273 30942 ft 534 kts 79°
2026-05-04 02:06 40.99623 -70.33583 30931 ft 533 kts 79°
2026-05-04 02:07 41.00840 -70.23898 30931 ft 533 kts 79°
2026-05-04 02:07 41.02046 -70.14229 30943 ft 532 kts 79°
2026-05-04 02:08 41.03245 -70.04551 30930 ft 533 kts 79°
2026-05-04 02:08 41.04437 -69.94857 30939 ft 533 kts 79°
2026-05-04 02:09 41.05623 -69.85152 30930 ft 534 kts 79°
2026-05-04 02:09 41.07292 -69.75583 30912 ft 532 kts 69°
2026-05-04 02:10 41.10187 -69.66604 30920 ft 529 kts 57°
2026-05-04 02:10 41.13853 -69.58146 30919 ft 529 kts 56°
2026-05-04 02:11 41.17524 -69.49739 30922 ft 531 kts 57°
2026-05-04 02:11 41.21216 -69.41150 30911 ft 533 kts 57°
2026-05-04 02:12 41.24837 -69.32633 30906 ft 533 kts 57°
2026-05-04 02:12 41.28472 -69.24042 30904 ft 533 kts 57°
2026-05-04 02:13 41.32100 -69.15451 30920 ft 533 kts 57°
2026-05-04 02:13 41.35724 -69.06852 30909 ft 533 kts 57°
2026-05-04 02:14 41.39346 -68.98236 30896 ft 533 kts 57°
2026-05-04 02:14 41.42953 -68.89628 30895 ft 532 kts 57°
2026-05-04 02:15 41.46553 -68.81012 30887 ft 532 kts 58°
2026-05-04 02:15 41.50150 -68.72380 30886 ft 532 kts 58°
2026-05-04 02:16 41.53742 -68.63731 30888 ft 533 kts 58°
2026-05-04 02:16 41.57328 -68.55075 30877 ft 533 kts 58°
2026-05-04 02:17 41.60887 -68.46458 30881 ft 533 kts 58°
2026-05-04 02:17 41.64385 -68.37961 30880 ft 533 kts 58°
2026-05-04 02:18 41.67952 -68.29274 30870 ft 533 kts 58°
2026-05-04 02:18 41.71509 -68.20586 30879 ft 532 kts 59°
2026-05-04 02:19 41.75059 -68.11890 30865 ft 532 kts 59°
2026-05-04 02:19 41.78580 -68.03238 30858 ft 532 kts 59°
2026-05-04 02:20 41.82114 -67.94529 30851 ft 532 kts 59°
2026-05-04 02:20 41.85643 -67.85807 30869 ft 532 kts 59°
2026-05-04 02:21 41.89159 -67.77091 30844 ft 532 kts 59°
2026-05-04 02:21 41.92675 -67.68349 30840 ft 531 kts 59°
2026-05-04 02:22 41.96174 -67.59621 30843 ft 531 kts 59°
2026-05-04 02:22 41.99668 -67.50882 30833 ft 531 kts 60°
2026-05-04 02:23 42.03153 -67.42140 30825 ft 530 kts 60°
2026-05-04 02:23 42.06627 -67.33395 30825 ft 530 kts 60°
2026-05-04 02:24 42.10092 -67.24650 30819 ft 530 kts 60°
2026-05-04 02:24 42.13551 -67.15893 30812 ft 530 kts 60°
2026-05-04 02:25 42.17003 -67.07128 30812 ft 529 kts 60°
2026-05-04 02:25 42.20381 -66.98302 30800 ft 530 kts 65°
2026-05-04 02:26 42.23155 -66.89152 30811 ft 531 kts 67°
2026-05-04 02:26 42.25865 -66.79872 30797 ft 531 kts 67°
2026-05-04 02:27 42.28592 -66.70599 30786 ft 532 kts 67°
2026-05-04 02:27 42.31339 -66.61324 30786 ft 532 kts 67°
2026-05-04 02:28 42.34088 -66.52046 30769 ft 532 kts 67°
2026-05-04 02:28 42.36833 -66.42739 30773 ft 533 kts 67°
2026-05-04 02:29 42.39572 -66.33414 30772 ft 535 kts 68°
2026-05-04 02:29 42.42313 -66.24043 30753 ft 535 kts 68°
2026-05-04 02:30 42.45048 -66.14659 30783 ft 536 kts 68°
2026-05-04 02:30 42.47780 -66.05253 30758 ft 537 kts 68°
2026-05-04 02:31 42.50501 -65.95847 30745 ft 536 kts 68°
2026-05-04 02:31 42.53208 -65.86455 30741 ft 534 kts 68°
2026-05-04 02:32 42.55905 -65.77067 30730 ft 534 kts 68°
2026-05-04 02:32 42.58591 -65.67679 30725 ft 534 kts 68°
2026-05-04 02:33 42.61270 -65.58280 30724 ft 534 kts 68°
2026-05-04 02:33 42.63945 -65.48863 30715 ft 535 kts 68°
2026-05-04 02:34 42.66614 -65.39429 30711 ft 535 kts 69°
2026-05-04 02:34 42.69275 -65.29992 30702 ft 535 kts 69°
2026-05-04 02:35 42.71912 -65.20599 30685 ft 535 kts 69°
2026-05-04 02:35 42.74561 -65.11130 30686 ft 535 kts 69°
2026-05-04 02:36 42.77220 -65.01591 30679 ft 536 kts 69°
2026-05-04 02:36 42.79854 -64.92106 30664 ft 536 kts 69°
2026-05-04 02:37 42.82464 -64.82667 30659 ft 536 kts 69°
2026-05-04 02:37 42.85083 -64.73163 30637 ft 536 kts 70°
2026-05-04 02:38 42.87699 -64.63632 30644 ft 537 kts 70°
2026-05-04 02:38 42.90311 -64.54079 30638 ft 538 kts 70°
2026-05-04 02:39 42.92919 -64.44500 30624 ft 539 kts 70°
2026-05-04 02:39 42.95521 -64.34910 30621 ft 539 kts 70°
2026-05-04 02:40 42.98112 -64.25319 30624 ft 539 kts 70°
2026-05-04 02:40 43.00700 -64.15704 30574 ft 539 kts 70°
2026-05-04 02:41 43.03280 -64.06080 30593 ft 540 kts 70°
2026-05-04 02:41 43.05854 -63.96437 30582 ft 540 kts 71°
2026-05-04 02:42 43.08424 -63.86775 30577 ft 541 kts 71°
2026-05-04 02:42 43.10992 -63.77080 30567 ft 542 kts 71°
2026-05-04 02:43 43.13550 -63.67384 30554 ft 541 kts 71°
2026-05-04 02:43 43.16098 -63.57687 30553 ft 541 kts 71°
2026-05-04 02:44 43.18634 -63.47998 30550 ft 540 kts 71°
2026-05-04 02:44 43.21164 -63.38292 30521 ft 541 kts 71°
2026-05-04 02:45 43.23685 -63.28578 30521 ft 541 kts 71°
2026-05-04 02:45 43.26202 -63.18844 30504 ft 542 kts 71°
2026-05-04 02:46 43.28713 -63.09088 30488 ft 542 kts 72°
2026-05-04 02:46 43.31220 -62.99310 30492 ft 545 kts 72°
2026-05-04 02:47 43.33737 -62.89450 30475 ft 548 kts 72°
2026-05-04 02:47 43.36253 -62.79554 30473 ft 549 kts 72°
2026-05-04 02:48 43.38754 -62.69678 30452 ft 545 kts 72°
2026-05-04 02:48 43.41217 -62.59909 30437 ft 544 kts 72°
2026-05-04 02:49 43.43687 -62.50072 30435 ft 544 kts 73°
2026-05-04 02:49 43.46154 -62.40203 30442 ft 546 kts 73°
2026-05-04 02:50 43.48619 -62.30298 30444 ft 547 kts 73°
2026-05-04 02:50 43.51082 -62.20362 30420 ft 549 kts 73°
2026-05-04 02:51 43.53536 -62.10421 30406 ft 548 kts 73°
2026-05-04 02:51 43.55983 -62.00467 30375 ft 547 kts 74°
2026-05-04 02:52 43.58413 -61.90534 30383 ft 547 kts 74°
2026-05-04 02:52 43.60837 -61.80576 30382 ft 548 kts 74°
2026-05-04 02:53 43.63259 -61.70587 30388 ft 550 kts 75°
2026-05-04 02:53 43.65679 -61.60565 30361 ft 551 kts 75°
2026-05-04 02:54 43.67687 -61.52216 30371 ft 551 kts 75°
2026-05-04 02:54 43.70091 -61.42187 30345 ft 549 kts 75°
2026-05-04 02:55 43.73674 -61.27143 30356 ft 549 kts 75°
2026-05-04 02:56 43.76049 -61.17112 30354 ft 549 kts 75°
2026-05-04 02:56 43.78418 -61.07064 30355 ft 549 kts 76°
2026-05-04 02:57 43.80779 -60.97004 30340 ft 549 kts 76°
2026-05-04 02:57 43.83135 -60.86929 30331 ft 549 kts 76°
2026-05-04 02:58 43.85475 -60.76866 30326 ft 549 kts 76°
2026-05-04 02:58 43.87806 -60.66799 30319 ft 549 kts 77°
2026-05-04 02:59 43.90125 -60.56739 30328 ft 548 kts 77°
2026-05-04 02:59 43.92433 -60.46679 30323 ft 547 kts 77°
2026-05-04 03:00 43.94726 -60.36634 30339 ft 546 kts 77°
2026-05-04 03:00 43.97013 -60.26577 30321 ft 546 kts 78°
2026-05-04 03:01 43.99291 -60.16512 30362 ft 547 kts 78°
2026-05-04 03:01 44.01565 -60.06404 30360 ft 549 kts 78°
2026-05-04 03:02 44.03837 -59.96269 30373 ft 550 kts 78°
2026-05-04 03:02 44.06085 -59.86192 30373 ft 550 kts 78°
2026-05-04 03:03 44.08341 -59.76039 30350 ft 549 kts 79°
2026-05-04 03:03 44.10586 -59.65890 30357 ft 549 kts 80°
2026-05-04 03:04 44.12822 -59.55717 30372 ft 550 kts 81°
2026-05-04 03:04 44.15052 -59.45521 30388 ft 552 kts 81°
2026-05-04 03:05 44.17280 -59.35291 30384 ft 552 kts 81°
2026-05-04 03:05 44.19502 -59.25047 30395 ft 552 kts 81°
2026-05-04 03:06 44.21712 -59.14816 30317 ft 551 kts 82°
2026-05-04 03:06 44.23906 -59.04599 30414 ft 550 kts 82°
2026-05-04 03:07 44.26091 -58.94352 30402 ft 551 kts 83°
2026-05-04 03:07 44.28271 -58.84095 30405 ft 552 kts 83°
2026-05-04 03:08 44.30445 -58.73815 30427 ft 553 kts 83°
2026-05-04 03:08 44.32616 -58.63507 30419 ft 553 kts 83°
2026-05-04 03:09 44.34776 -58.53195 30375 ft 553 kts 83°
2026-05-04 03:09 44.36925 -58.42884 30441 ft 553 kts 83°
2026-05-04 03:10 44.39067 -58.32542 30442 ft 554 kts 83°
2026-05-04 03:10 44.41204 -58.22174 30442 ft 556 kts 83°
2026-05-04 03:11 44.43338 -58.11777 30430 ft 555 kts 83°
2026-05-04 03:11 44.45459 -58.01400 30440 ft 554 kts 84°
2026-05-04 03:12 44.47567 -57.91025 30447 ft 553 kts 84°
2026-05-04 03:12 44.49659 -57.80667 30462 ft 552 kts 84°
2026-05-04 03:13 44.51739 -57.70316 30435 ft 552 kts 84°
2026-05-04 03:13 44.53806 -57.59982 30471 ft 550 kts 84°
2026-05-04 03:14 44.55847 -57.49718 30476 ft 550 kts 84°
2026-05-04 03:14 44.57888 -57.39397 30397 ft 550 kts 84°
2026-05-04 03:15 44.59937 -57.28981 30463 ft 550 kts 84°
2026-05-04 03:15 44.61951 -57.18691 30491 ft 552 kts 84°
2026-05-04 03:16 44.63977 -57.08279 30509 ft 554 kts 84°
2026-05-04 03:16 44.66000 -56.97837 30502 ft 554 kts 84°
2026-05-04 03:17 44.68015 -56.87388 30508 ft 554 kts 84°
2026-05-04 03:17 44.70014 -56.76966 30435 ft 551 kts 84°
2026-05-04 03:18 44.71995 -56.66579 30519 ft 550 kts 84°
2026-05-04 03:18 44.73964 -56.56172 30524 ft 551 kts 85°
2026-05-04 03:19 44.75928 -56.45741 30525 ft 552 kts 85°
2026-05-04 03:19 44.77888 -56.35285 30519 ft 552 kts 85°
2026-05-04 03:20 44.79838 -56.24834 30527 ft 552 kts 85°
2026-05-04 03:20 44.81776 -56.14386 30481 ft 551 kts 85°
2026-05-04 03:21 44.83702 -56.03932 30528 ft 551 kts 85°
2026-05-04 03:21 44.85621 -55.93459 30534 ft 553 kts 85°
2026-05-04 03:22 44.87534 -55.82960 30548 ft 553 kts 85°
2026-05-04 03:22 44.89440 -55.72443 30545 ft 554 kts 85°
2026-05-04 03:23 44.91337 -55.61923 30554 ft 553 kts 85°
2026-05-04 03:23 44.93210 -55.51475 30494 ft 551 kts 85°
2026-05-04 03:24 44.95078 -55.40998 30570 ft 550 kts 85°
2026-05-04 03:24 44.96932 -55.30519 30569 ft 550 kts 85°
2026-05-04 03:25 44.98790 -55.19961 30578 ft 551 kts 85°
2026-05-04 03:25 45.00615 -55.09531 30558 ft 551 kts 85°
2026-05-04 03:26 45.02444 -54.99024 30578 ft 550 kts 85°
2026-05-04 03:26 45.04264 -54.88504 30588 ft 551 kts 85°
2026-05-04 03:27 45.06076 -54.77951 30596 ft 554 kts 85°
2026-05-04 03:27 45.07889 -54.67337 30607 ft 556 kts 85°
2026-05-04 03:28 45.09698 -54.56690 30598 ft 557 kts 85°
2026-05-04 03:28 45.11504 -54.46005 30611 ft 558 kts 85°
2026-05-04 03:29 45.13297 -54.35332 30553 ft 557 kts 85°
2026-05-04 03:29 45.15078 -54.24645 30613 ft 558 kts 85°
2026-05-04 03:30 45.16853 -54.13932 30612 ft 559 kts 85°
2026-05-04 03:30 45.18625 -54.03173 30624 ft 561 kts 85°
2026-05-04 03:31 45.20388 -53.92400 30637 ft 561 kts 85°
2026-05-04 03:31 45.22143 -53.81613 30631 ft 561 kts 85°
2026-05-04 03:32 45.23886 -53.70829 30573 ft 561 kts 84°
2026-05-04 03:32 45.25618 -53.60046 30633 ft 560 kts 84°
2026-05-04 03:33 45.27341 -53.49235 30644 ft 562 kts 84°
2026-05-04 03:33 45.29056 -53.38405 30668 ft 563 kts 84°
2026-05-04 03:34 45.30765 -53.27545 30647 ft 564 kts 84°
2026-05-04 03:34 45.32469 -53.16656 30673 ft 565 kts 84°
2026-05-04 03:35 45.34161 -53.05765 30655 ft 564 kts 84°
2026-05-04 03:35 45.35833 -52.94935 30684 ft 565 kts 84°
2026-05-04 03:36 45.37504 -52.84024 30692 ft 565 kts 84°
2026-05-04 03:36 45.39165 -52.73105 30708 ft 565 kts 84°
2026-05-04 03:37 45.40818 -52.62176 30716 ft 565 kts 84°
2026-05-04 03:37 45.42458 -52.51252 30712 ft 565 kts 84°
2026-05-04 03:38 45.44088 -52.40317 30723 ft 564 kts 84°
2026-05-04 03:38 45.45707 -52.29383 30738 ft 564 kts 83°
2026-05-04 03:39 45.47316 -52.18435 30745 ft 564 kts 84°
2026-05-04 03:39 45.48916 -52.07485 30753 ft 565 kts 84°
2026-05-04 03:40 45.50771 -51.96586 30744 ft 570 kts 76°
2026-05-04 03:40 45.53533 -51.85980 30770 ft 569 kts 72°
2026-05-04 03:41 45.55879 -51.77229 30767 ft 567 kts 72°
2026-05-04 03:41 45.58633 -51.66731 30771 ft 563 kts 73°
2026-05-04 03:42 45.61325 -51.56255 30794 ft 562 kts 73°
2026-05-04 03:42 45.63998 -51.45758 30800 ft 562 kts 73°
2026-05-04 03:43 45.66670 -51.35235 30811 ft 565 kts 73°
2026-05-04 03:43 45.69349 -51.24655 30825 ft 567 kts 73°
2026-05-04 03:44 45.72027 -51.14034 30831 ft 568 kts 73°
2026-05-04 03:44 45.74699 -51.03392 30830 ft 568 kts 73°
2026-05-04 03:45 45.77362 -50.92738 30815 ft 568 kts 72°
2026-05-04 03:45 45.80009 -50.82093 30850 ft 567 kts 72°
2026-05-04 03:46 45.82624 -50.71513 30850 ft 565 kts 72°
2026-05-04 03:46 45.85238 -50.60904 30856 ft 563 kts 72°
2026-05-04 03:47 45.87833 -50.50322 30865 ft 561 kts 72°
2026-05-04 03:47 45.90408 -50.39768 30861 ft 560 kts 72°
2026-05-04 03:48 45.92970 -50.29211 30878 ft 559 kts 72°
2026-05-04 03:48 45.95518 -50.18670 30876 ft 558 kts 72°
2026-05-04 03:49 45.98054 -50.08128 30856 ft 558 kts 71°
2026-05-04 03:49 46.00586 -49.97582 30883 ft 558 kts 71°
2026-05-04 03:50 46.03208 -49.87065 30892 ft 559 kts 70°
2026-05-04 03:50 46.05877 -49.76530 30898 ft 560 kts 70°
2026-05-04 03:51 46.08527 -49.65974 30905 ft 561 kts 71°
2026-05-04 03:51 46.11154 -49.55397 30897 ft 560 kts 71°
2026-05-04 03:52 46.13760 -49.44830 30900 ft 559 kts 71°
2026-05-04 03:52 46.16333 -49.34352 30900 ft 557 kts 71°
2026-05-04 03:53 46.18908 -49.23822 30905 ft 556 kts 71°
2026-05-04 03:53 46.21470 -49.13298 30909 ft 555 kts 70°
2026-05-04 03:54 46.24019 -49.02779 30915 ft 555 kts 70°
2026-05-04 03:54 46.26561 -48.92243 30911 ft 555 kts 70°
2026-05-04 03:55 46.29092 -48.81699 30929 ft 554 kts 71°
2026-05-04 03:55 46.31601 -48.71195 30915 ft 551 kts 71°
2026-05-04 03:56 46.34087 -48.60735 30928 ft 548 kts 71°
2026-05-04 03:56 46.36551 -48.50322 30931 ft 546 kts 71°
2026-05-04 03:57 46.38999 -48.39928 30946 ft 545 kts 71°
2026-05-04 03:57 46.41436 -48.29531 30945 ft 545 kts 71°
2026-05-04 03:58 46.45077 -48.13905 30938 ft 546 kts 71°
2026-05-04 03:58 46.47495 -48.03468 30960 ft 546 kts 71°
2026-05-04 03:59 46.49901 -47.93027 30954 ft 545 kts 71°
2026-05-04 03:59 46.52295 -47.82590 30951 ft 544 kts 71°
2026-05-04 04:00 46.54675 -47.72162 30963 ft 544 kts 71°
2026-05-04 04:00 46.57042 -47.61742 30980 ft 542 kts 71°
2026-05-04 04:01 46.59394 -47.51338 30972 ft 540 kts 72°
2026-05-04 04:01 46.61726 -47.40970 30970 ft 539 kts 72°
2026-05-04 04:02 46.64041 -47.30627 30965 ft 537 kts 71°
2026-05-04 04:02 46.66325 -47.20370 30989 ft 535 kts 71°
2026-05-04 04:03 46.68612 -47.10059 30990 ft 535 kts 71°
2026-05-04 04:03 46.70887 -46.99748 30992 ft 535 kts 71°
2026-05-04 04:04 46.73153 -46.89426 31005 ft 535 kts 71°
2026-05-04 04:04 46.75409 -46.79095 31013 ft 535 kts 71°
2026-05-04 04:05 46.77657 -46.68751 31008 ft 534 kts 72°
2026-05-04 04:05 46.79892 -46.58420 31019 ft 534 kts 72°
2026-05-04 04:06 46.82116 -46.48083 31018 ft 533 kts 72°
2026-05-04 04:06 46.84327 -46.37753 31014 ft 533 kts 71°
2026-05-04 04:07 46.86529 -46.27417 31025 ft 533 kts 71°
2026-05-04 04:07 46.88722 -46.17076 31035 ft 533 kts 71°
2026-05-04 04:08 46.90906 -46.06721 31038 ft 533 kts 71°
2026-05-04 04:08 46.93080 -45.96357 31038 ft 533 kts 71°
2026-05-04 04:09 46.95248 -45.85972 31044 ft 533 kts 71°
2026-05-04 04:09 46.97406 -45.75582 31054 ft 534 kts 71°
2026-05-04 04:10 46.99555 -45.65177 31051 ft 534 kts 71°
2026-05-04 04:10 47.01699 -45.54748 31058 ft 535 kts 71°
2026-05-04 04:11 47.03837 -45.44291 31067 ft 536 kts 71°
2026-05-04 04:11 47.05971 -45.33797 31072 ft 537 kts 71°
2026-05-04 04:12 47.08099 -45.23283 31075 ft 538 kts 71°
2026-05-04 04:12 47.10219 -45.12746 31088 ft 539 kts 71°
2026-05-04 04:13 47.12332 -45.02188 31085 ft 539 kts 71°
2026-05-04 04:13 47.14437 -44.91614 31089 ft 539 kts 71°
2026-05-04 04:14 47.16529 -44.81048 31091 ft 538 kts 71°
2026-05-04 04:14 47.18609 -44.70484 31109 ft 538 kts 71°
2026-05-04 04:15 47.20680 -44.59911 31105 ft 538 kts 71°
2026-05-04 04:15 47.22737 -44.49346 31105 ft 537 kts 71°
2026-05-04 04:16 47.24780 -44.38791 31119 ft 536 kts 70°
2026-05-04 04:16 47.26816 -44.28224 31137 ft 536 kts 70°
2026-05-04 04:17 47.28826 -44.17737 31122 ft 535 kts 70°
2026-05-04 04:17 47.30837 -44.07182 31126 ft 535 kts 70°
2026-05-04 04:18 47.32837 -43.96627 31169 ft 535 kts 70°
2026-05-04 04:18 47.34828 -43.86061 31153 ft 535 kts 70°
2026-05-04 04:19 47.36807 -43.75494 31150 ft 534 kts 70°
2026-05-04 04:19 47.38771 -43.64947 31153 ft 534 kts 70°
2026-05-04 04:20 47.40728 -43.54383 31186 ft 534 kts 70°
2026-05-04 04:20 47.42674 -43.43808 31173 ft 533 kts 69°
2026-05-04 04:21 47.44607 -43.33250 31170 ft 532 kts 69°
2026-05-04 04:21 47.46526 -43.22710 31176 ft 530 kts 69°
2026-05-04 04:22 47.48432 -43.12186 31179 ft 530 kts 69°
2026-05-04 04:22 47.50326 -43.01662 31190 ft 530 kts 68°
2026-05-04 04:23 47.52211 -42.91130 31191 ft 529 kts 69°
2026-05-04 04:23 47.54083 -42.80603 31193 ft 529 kts 69°
2026-05-04 04:24 47.55944 -42.70083 31204 ft 529 kts 69°
2026-05-04 04:24 47.57796 -42.59545 31216 ft 528 kts 68°
2026-05-04 04:25 47.59634 -42.49024 31207 ft 527 kts 68°
2026-05-04 04:25 47.61457 -42.38525 31211 ft 526 kts 68°
2026-05-04 04:26 47.63257 -42.28105 31223 ft 526 kts 69°
2026-05-04 04:26 47.65074 -42.17525 31235 ft 525 kts 68°
2026-05-04 04:27 47.66853 -42.07097 31231 ft 525 kts 68°
2026-05-04 04:27 47.68633 -41.96604 31235 ft 524 kts 69°
2026-05-04 04:28 47.70401 -41.86113 31242 ft 524 kts 69°
2026-05-04 04:28 47.72161 -41.75612 31243 ft 524 kts 69°
2026-05-04 04:29 47.73628 -41.66807 31251 ft 524 kts 69°
2026-05-04 04:29 47.75360 -41.56353 31248 ft 525 kts 69°
2026-05-04 04:30 47.77096 -41.45814 31265 ft 525 kts 69°
2026-05-04 04:30 47.78820 -41.35274 31251 ft 524 kts 69°
2026-05-04 04:31 47.80531 -41.24746 31253 ft 523 kts 69°
2026-05-04 04:31 47.82228 -41.14239 31258 ft 522 kts 69°
2026-05-04 04:32 47.83913 -41.03748 31275 ft 521 kts 69°
2026-05-04 04:32 47.85588 -40.93251 31298 ft 521 kts 69°
2026-05-04 04:33 47.87254 -40.82749 31268 ft 521 kts 69°
2026-05-04 04:33 47.88910 -40.72234 31282 ft 521 kts 69°
2026-05-04 04:34 47.90554 -40.61725 31288 ft 521 kts 69°
2026-05-04 04:34 47.92190 -40.51208 31316 ft 521 kts 70°
2026-05-04 04:35 47.93815 -40.40695 31305 ft 520 kts 71°
2026-05-04 04:35 47.95427 -40.30179 31297 ft 519 kts 71°
2026-05-04 04:36 47.97027 -40.19686 31298 ft 518 kts 71°
2026-05-04 04:36 47.98617 -40.09196 31304 ft 518 kts 71°
2026-05-04 04:37 48.02718 -39.88802 31320 ft 509 kts 64°
2026-05-04 04:38 48.05264 -39.78926 31314 ft 509 kts 64°
2026-05-04 04:38 48.07760 -39.69086 31318 ft 509 kts 64°
2026-05-04 04:39 48.10238 -39.59156 31332 ft 510 kts 66°
2026-05-04 04:39 48.12700 -39.49201 31329 ft 510 kts 66°
2026-05-04 04:40 48.15152 -39.39240 31324 ft 510 kts 66°
2026-05-04 04:40 48.17600 -39.29259 31326 ft 510 kts 66°
2026-05-04 04:41 48.20040 -39.19279 31343 ft 510 kts 67°
2026-05-04 04:41 48.22470 -39.09286 31336 ft 510 kts 67°
2026-05-04 04:42 48.24891 -38.99287 31337 ft 510 kts 68°
2026-05-04 04:42 48.27301 -38.89290 31354 ft 509 kts 68°
2026-05-04 04:43 48.29698 -38.79298 31340 ft 509 kts 69°
2026-05-04 04:43 48.32086 -38.69301 31345 ft 508 kts 69°
2026-05-04 04:44 48.34464 -38.59298 31360 ft 508 kts 69°
2026-05-04 04:44 48.36835 -38.49283 31354 ft 508 kts 69°
2026-05-04 04:45 48.39194 -38.39265 31358 ft 508 kts 70°
2026-05-04 04:47 48.47390 -38.04121 31370 ft 508 kts 70°
2026-05-04 04:47 48.49711 -37.94059 31365 ft 508 kts 71°
2026-05-04 04:48 48.52020 -37.83999 31370 ft 508 kts 71°
2026-05-04 04:49 48.57751 -37.58836 31375 ft 507 kts 71°
2026-05-04 04:49 48.60028 -37.48753 31374 ft 507 kts 71°
2026-05-04 04:50 48.62282 -37.38727 31377 ft 507 kts 71°
2026-05-04 04:50 48.64540 -37.28635 31383 ft 507 kts 72°
2026-05-04 04:51 48.66790 -37.18527 31390 ft 507 kts 72°
2026-05-04 04:51 48.69032 -37.08405 31375 ft 507 kts 72°
2026-05-04 04:52 48.71267 -36.98270 31376 ft 508 kts 72°
2026-05-04 04:52 48.73493 -36.88126 31379 ft 508 kts 72°
2026-05-04 04:53 48.75712 -36.77963 31389 ft 508 kts 72°
2026-05-04 04:53 48.77922 -36.67787 31380 ft 509 kts 72°
2026-05-04 04:54 48.80127 -36.57588 31385 ft 509 kts 72°
2026-05-04 04:54 48.82322 -36.47386 31392 ft 509 kts 73°
2026-05-04 04:55 48.84513 -36.37153 31396 ft 510 kts 73°
2026-05-04 04:55 48.86694 -36.26911 31388 ft 510 kts 73°
2026-05-04 04:56 48.88868 -36.16650 31390 ft 510 kts 73°
2026-05-04 04:56 48.91031 -36.06392 31393 ft 510 kts 73°
2026-05-04 04:57 48.93191 -35.96099 31404 ft 511 kts 73°
2026-05-04 04:57 48.95340 -35.85800 31406 ft 511 kts 73°
2026-05-04 04:58 48.97482 -35.75482 31400 ft 511 kts 73°
2026-05-04 04:58 48.99616 -35.65152 31402 ft 512 kts 73°
2026-05-04 04:59 49.01741 -35.54810 31392 ft 512 kts 73°
2026-05-04 04:59 49.03859 -35.44450 31403 ft 512 kts 73°
2026-05-04 05:00 49.05967 -35.34084 31406 ft 512 kts 74°
2026-05-04 05:01 49.09115 -35.18503 31400 ft 512 kts 73°
2026-05-04 05:01 49.11188 -35.08173 31398 ft 512 kts 74°
2026-05-04 05:02 49.13265 -34.97769 31401 ft 512 kts 74°
2026-05-04 05:02 49.15333 -34.87357 31400 ft 512 kts 74°
2026-05-04 05:03 49.17389 -34.76944 31400 ft 512 kts 74°
2026-05-04 05:04 49.21472 -34.56104 31405 ft 512 kts 74°
2026-05-04 05:04 49.23500 -34.45669 31410 ft 512 kts 74°
2026-05-04 05:06 49.31514 -34.03854 31414 ft 512 kts 74°
2026-05-04 05:07 49.33493 -33.93384 31422 ft 512 kts 74°
2026-05-04 05:07 49.35464 -33.82897 31421 ft 511 kts 74°
2026-05-04 05:09 49.44198 -33.35711 31432 ft 510 kts 74°
2026-05-04 05:10 49.46111 -33.25207 31429 ft 510 kts 74°
2026-05-04 05:10 49.48014 -33.14705 31431 ft 510 kts 74°
2026-05-04 05:11 49.49896 -33.04254 31433 ft 510 kts 74°
2026-05-04 05:11 49.51780 -32.93733 31433 ft 510 kts 74°
2026-05-04 05:12 49.53656 -32.83193 31435 ft 510 kts 74°
2026-05-04 05:12 49.55523 -32.72645 31438 ft 511 kts 74°
2026-05-04 05:13 49.57378 -32.62097 31443 ft 510 kts 74°
2026-05-04 05:13 49.59226 -32.51529 31442 ft 510 kts 74°
2026-05-04 05:14 49.61062 -32.40971 31444 ft 510 kts 74°
2026-05-04 05:14 49.62889 -32.30398 31443 ft 510 kts 74°
2026-05-04 05:15 49.64707 -32.19813 31444 ft 510 kts 74°
2026-05-04 05:15 49.66220 -32.10955 31443 ft 510 kts 74°
2026-05-04 05:16 49.68008 -32.00431 31439 ft 510 kts 74°
2026-05-04 05:16 49.69808 -31.89765 31437 ft 510 kts 74°
2026-05-04 05:17 49.71573 -31.79250 31453 ft 509 kts 74°
2026-05-04 05:17 49.73338 -31.68664 31443 ft 508 kts 74°
2026-05-04 05:18 49.75090 -31.58089 31441 ft 508 kts 74°
2026-05-04 05:18 49.76831 -31.47519 31440 ft 507 kts 74°
2026-05-04 05:19 49.78563 -31.36938 31437 ft 507 kts 74°
2026-05-04 05:19 49.80284 -31.26354 31448 ft 507 kts 74°
2026-05-04 05:20 49.81995 -31.15768 31443 ft 507 kts 74°
2026-05-04 05:20 49.83694 -31.05190 31436 ft 506 kts 74°
2026-05-04 05:21 49.85384 -30.94600 31440 ft 506 kts 75°
2026-05-04 05:21 49.87062 -30.84013 31441 ft 506 kts 74°
2026-05-04 05:22 49.88729 -30.73432 31433 ft 505 kts 75°
2026-05-04 05:22 49.90386 -30.62848 31430 ft 505 kts 75°
2026-05-04 05:23 49.92031 -30.52266 31432 ft 504 kts 75°
2026-05-04 05:23 49.93665 -30.41690 31439 ft 504 kts 75°
2026-05-04 05:24 49.95288 -30.31114 31435 ft 503 kts 75°
2026-05-04 05:24 49.96900 -30.20538 31434 ft 503 kts 75°
2026-05-04 05:25 49.98503 -30.09956 31435 ft 503 kts 75°
2026-05-04 05:25 50.00096 -29.99372 31445 ft 503 kts 75°
2026-05-04 05:26 50.01646 -29.88780 31427 ft 502 kts 75°
2026-05-04 05:26 50.03165 -29.78185 31428 ft 502 kts 75°
2026-05-04 05:28 50.09155 -29.35847 31425 ft 500 kts 75°
2026-05-04 05:29 50.10629 -29.25261 31427 ft 500 kts 76°
2026-05-04 05:29 50.12092 -29.14669 31425 ft 500 kts 76°
2026-05-04 05:31 50.17852 -28.72230 31429 ft 501 kts 76°
2026-05-04 05:32 50.19268 -28.61598 31437 ft 500 kts 76°
2026-05-04 05:33 50.21373 -28.45648 31421 ft 500 kts 76°
2026-05-04 05:33 50.22761 -28.35027 31422 ft 499 kts 76°
2026-05-04 05:34 50.24140 -28.24405 31427 ft 499 kts 76°
2026-05-04 05:34 50.25497 -28.13865 31425 ft 498 kts 76°
2026-05-04 05:35 50.26853 -28.03256 31417 ft 497 kts 76°
2026-05-04 05:35 50.28196 -27.92660 31420 ft 497 kts 76°
2026-05-04 05:36 50.29529 -27.82072 31416 ft 496 kts 76°
2026-05-04 05:36 50.30852 -27.71482 31430 ft 496 kts 76°
2026-05-04 05:37 50.32165 -27.60878 31420 ft 496 kts 76°
2026-05-04 05:37 50.33469 -27.50268 31421 ft 497 kts 76°
2026-05-04 05:38 50.35408 -27.34337 31413 ft 497 kts 76°
2026-05-04 05:38 50.36689 -27.23700 31418 ft 497 kts 77°
2026-05-04 05:39 50.38594 -27.07725 31412 ft 498 kts 77°
2026-05-04 05:40 50.40479 -26.91722 31407 ft 498 kts 77°
2026-05-04 05:40 50.41722 -26.81051 31417 ft 498 kts 78°
2026-05-04 05:41 50.42956 -26.70369 31404 ft 498 kts 78°
2026-05-04 05:41 50.44181 -26.59686 31404 ft 497 kts 78°
2026-05-04 05:42 50.45394 -26.49011 31401 ft 497 kts 78°
2026-05-04 05:42 50.46589 -26.38405 31401 ft 497 kts 78°
2026-05-04 05:43 50.47783 -26.27715 31397 ft 497 kts 78°
2026-05-04 05:45 50.52459 -25.84920 31399 ft 497 kts 79°
2026-05-04 05:47 50.56973 -25.42077 31395 ft 496 kts 79°
2026-05-04 05:47 50.58077 -25.31358 31375 ft 496 kts 79°
2026-05-04 05:48 50.59170 -25.20639 31375 ft 496 kts 79°
2026-05-04 05:48 50.60252 -25.09932 31374 ft 495 kts 79°
2026-05-04 05:49 50.61323 -24.99228 31374 ft 495 kts 79°
2026-05-04 05:49 50.62385 -24.88512 31377 ft 495 kts 79°
2026-05-04 05:51 50.66522 -24.45737 31364 ft 494 kts 80°
2026-05-04 05:52 50.67371 -24.36750 31365 ft 494 kts 80°
2026-05-04 05:52 50.68535 -24.24286 31361 ft 494 kts 80°
2026-05-04 05:54 50.72275 -23.83213 31347 ft 493 kts 80°
2026-05-04 05:55 50.73226 -23.72497 31348 ft 493 kts 81°
2026-05-04 05:55 50.74167 -23.61784 31347 ft 493 kts 81°
2026-05-04 05:56 50.75098 -23.51061 31353 ft 493 kts 81°
2026-05-04 05:56 50.76175 -23.38518 31346 ft 493 kts 81°
2026-05-04 05:57 50.77086 -23.27768 31344 ft 494 kts 81°
2026-05-04 05:57 50.77988 -23.17007 31343 ft 494 kts 81°
2026-05-04 05:58 50.78880 -23.06242 31341 ft 494 kts 81°
2026-05-04 05:58 50.79763 -22.95472 31332 ft 494 kts 81°
2026-05-04 05:59 50.80635 -22.84693 31334 ft 494 kts 82°
2026-05-04 05:59 50.81497 -22.73929 31333 ft 494 kts 81°
2026-05-04 06:00 50.82349 -22.63150 31332 ft 494 kts 81°
2026-05-04 06:00 50.83050 -22.54188 31336 ft 494 kts 81°
2026-05-04 06:01 50.84019 -22.41653 31326 ft 493 kts 81°
2026-05-04 06:03 50.87105 -22.00424 31323 ft 490 kts 81°
2026-05-04 06:05 50.90528 -21.52226 31299 ft 490 kts 83°
2026-05-04 06:06 50.91256 -21.41568 31302 ft 490 kts 82°
2026-05-04 06:06 50.91981 -21.30824 31302 ft 490 kts 82°
2026-05-04 06:07 50.92695 -21.20084 31303 ft 490 kts 83°
2026-05-04 06:07 50.93401 -21.09331 31304 ft 490 kts 83°
2026-05-04 06:08 50.94095 -20.98597 31290 ft 489 kts 84°
2026-05-04 06:08 50.94778 -20.87871 31299 ft 489 kts 83°
2026-05-04 06:09 50.95451 -20.77144 31294 ft 489 kts 83°
2026-05-04 06:11 50.98043 -20.34266 31289 ft 487 kts 84°
2026-05-04 06:13 51.00239 -19.91557 31281 ft 483 kts 87°
2026-05-04 06:14 51.00881 -19.54288 31282 ft 484 kts 87°
2026-05-04 06:15 51.01065 -19.43588 31272 ft 485 kts 88°
2026-05-04 06:15 51.01238 -19.32873 31272 ft 485 kts 87°
2026-05-04 06:16 51.01401 -19.22159 31279 ft 485 kts 87°
2026-05-04 06:16 51.01552 -19.11479 31264 ft 483 kts 88°
2026-05-04 06:17 51.01695 -19.00818 31265 ft 482 kts 88°
2026-05-04 06:17 51.01826 -18.90191 31265 ft 481 kts 88°
2026-05-04 06:18 51.01950 -18.79558 31266 ft 481 kts 88°
2026-05-04 06:20 51.02342 -18.37073 31256 ft 479 kts 88°
2026-05-04 06:21 51.02508 -18.10709 31254 ft 478 kts 88°
2026-05-04 06:22 51.02559 -18.00086 31249 ft 478 kts 88°
2026-05-04 06:25 51.02642 -17.26402 31246 ft 476 kts 88°
2026-05-04 06:26 51.02616 -17.15898 31237 ft 475 kts 88°
2026-05-04 06:26 51.02580 -17.05409 31247 ft 474 kts 88°
2026-05-04 06:27 51.02452 -16.79306 31230 ft 472 kts 88°
2026-05-04 06:28 51.02385 -16.68886 31242 ft 471 kts 88°
2026-05-04 06:28 51.02309 -16.58554 31229 ft 471 kts 88°
2026-05-04 06:29 51.02223 -16.48164 31228 ft 470 kts 88°
2026-05-04 06:29 51.02128 -16.37787 31223 ft 470 kts 88°
2026-05-04 06:30 51.02024 -16.27407 31223 ft 470 kts 88°
2026-05-04 06:30 51.01911 -16.17034 31228 ft 470 kts 88°
2026-05-04 06:31 51.01789 -16.06659 31212 ft 469 kts 88°
2026-05-04 06:31 51.01658 -15.96311 31215 ft 469 kts 88°
2026-05-04 06:33 51.01042 -15.54947 31203 ft 467 kts 88°
2026-05-04 06:34 51.00866 -15.44643 31207 ft 466 kts 88°
2026-05-04 06:34 51.00681 -15.34366 31196 ft 465 kts 88°
2026-05-04 06:36 50.99939 -14.93499 31183 ft 461 kts 86°
2026-05-04 06:37 51.00006 -14.83343 31185 ft 461 kts 85°
2026-05-04 06:37 51.00074 -14.73166 31184 ft 462 kts 85°
2026-05-04 06:38 51.00101 -14.62962 31182 ft 462 kts 86°
2026-05-04 06:40 51.00073 -14.22169 31174 ft 462 kts 86°
2026-05-04 06:40 51.00046 -14.11976 31162 ft 461 kts 86°
2026-05-04 06:41 50.99584 -14.01806 31149 ft 466 kts 97°
2026-05-04 06:41 50.97699 -13.91903 31165 ft 474 kts 109°
2026-05-04 06:42 50.94876 -13.82439 31159 ft 474 kts 110°
2026-05-04 06:44 50.83555 -13.44903 31141 ft 471 kts 110°
2026-05-04 06:44 50.80734 -13.35553 31140 ft 471 kts 110°
2026-05-04 06:45 50.77904 -13.26213 31142 ft 472 kts 110°
2026-05-04 06:45 50.75063 -13.16881 31135 ft 471 kts 109°
2026-05-04 06:46 50.72221 -13.07581 31126 ft 470 kts 110°
2026-05-04 06:46 50.69378 -12.98314 31113 ft 468 kts 110°
2026-05-04 06:48 50.58450 -12.62998 31128 ft 468 kts 109°
2026-05-04 06:50 50.46957 -12.26402 31079 ft 466 kts 110°
2026-05-04 06:51 50.44069 -12.17289 31081 ft 466 kts 110°
2026-05-04 06:51 50.41173 -12.08187 31096 ft 467 kts 110°
2026-05-04 06:52 50.38268 -11.99089 31075 ft 466 kts 110°
2026-05-04 06:52 50.35358 -11.90010 31061 ft 466 kts 110°
2026-05-04 06:53 50.32444 -11.80950 31056 ft 466 kts 110°
2026-05-04 06:53 50.29528 -11.71916 31057 ft 465 kts 110°
2026-05-04 06:54 50.26601 -11.62882 31050 ft 466 kts 110°
2026-05-04 06:54 50.23669 -11.53867 31070 ft 465 kts 110°
2026-05-04 06:55 50.20732 -11.44867 31035 ft 465 kts 110°
2026-05-04 06:55 50.17793 -11.35897 31031 ft 463 kts 110°
2026-05-04 06:57 50.06029 -11.00285 31048 ft 465 kts 111°
2026-05-04 06:58 50.03044 -10.91329 31034 ft 467 kts 111°
2026-05-04 06:58 50.00042 -10.82360 31030 ft 468 kts 111°
2026-05-04 06:59 49.97033 -10.73400 31013 ft 468 kts 111°
2026-05-04 06:59 49.94013 -10.64436 31010 ft 468 kts 111°
2026-05-04 07:01 49.81802 -10.28513 31012 ft 473 kts 113°
2026-05-04 07:02 49.78716 -10.19513 31008 ft 474 kts 113°
2026-05-04 07:02 49.75616 -10.10506 31011 ft 475 kts 113°
2026-05-04 07:03 49.72527 -10.01558 31016 ft 475 kts 114°
2026-05-04 07:03 49.69384 -9.92493 31005 ft 476 kts 115°
2026-05-04 07:04 49.66268 -9.83538 30995 ft 477 kts 115°
2026-05-04 07:04 49.63117 -9.74508 30993 ft 478 kts 115°
2026-05-04 07:05 49.59931 -9.65411 30991 ft 479 kts 115°
2026-05-04 07:05 49.56779 -9.56443 31012 ft 479 kts 116°
2026-05-04 07:06 49.52001 -9.42910 30993 ft 480 kts 116°
2026-05-04 07:07 49.48799 -9.33882 30986 ft 480 kts 116°
2026-05-04 07:09 49.35941 -8.97933 30975 ft 480 kts 117°
2026-05-04 07:09 49.32705 -8.88963 30974 ft 481 kts 117°
2026-05-04 07:10 49.29450 -8.79975 30975 ft 483 kts 117°
2026-05-04 07:12 49.16329 -8.44045 30974 ft 484 kts 118°
2026-05-04 07:12 49.13031 -8.35091 30995 ft 483 kts 118°
2026-05-04 07:13 49.09729 -8.26155 30977 ft 483 kts 118°
2026-05-04 07:13 49.06420 -8.17231 30976 ft 483 kts 118°
2026-05-04 07:14 49.00605 -7.98892 30971 ft 481 kts 102°
2026-05-04 07:14 49.00056 -7.93879 30988 ft 480 kts 95°
2026-05-04 07:15 49.00093 -7.83776 30971 ft 481 kts 88°
2026-05-04 07:15 49.00282 -7.73576 30982 ft 482 kts 89°
2026-05-04 07:16 49.00389 -7.63360 30973 ft 483 kts 89°
2026-05-04 07:16 49.00278 -7.53130 30963 ft 484 kts 96°
2026-05-04 07:17 48.98958 -7.43104 30973 ft 484 kts 107°
2026-05-04 07:17 48.96691 -7.33460 30969 ft 484 kts 110°
2026-05-04 07:18 48.94345 -7.23855 30971 ft 484 kts 110°
2026-05-04 07:18 48.92020 -7.14257 30969 ft 484 kts 110°
2026-05-04 07:19 48.89705 -7.04651 30973 ft 484 kts 110°
2026-05-04 07:19 48.87390 -6.95056 30973 ft 483 kts 110°
2026-05-04 07:20 48.85066 -6.85470 30973 ft 483 kts 110°
2026-05-04 07:20 48.82736 -6.75903 30973 ft 483 kts 110°
2026-05-04 07:22 48.73325 -6.37692 30971 ft 483 kts 111°
2026-05-04 07:23 48.70955 -6.28171 30971 ft 483 kts 111°
2026-05-04 07:23 48.68578 -6.18664 30968 ft 483 kts 111°
2026-05-04 07:24 48.66194 -6.09167 30984 ft 483 kts 111°
2026-05-04 07:24 48.63803 -5.99678 30970 ft 482 kts 112°
2026-05-04 07:26 48.54181 -5.61912 30955 ft 481 kts 112°
2026-05-04 07:27 48.51777 -5.52568 30970 ft 481 kts 113°
2026-05-04 07:27 48.49347 -5.43167 30976 ft 481 kts 113°
2026-05-04 07:28 48.46908 -5.33771 30975 ft 481 kts 114°
2026-05-04 07:28 48.44462 -5.24385 30965 ft 481 kts 114°
2026-05-04 07:29 48.42008 -5.15005 30959 ft 481 kts 114°
2026-05-04 07:29 48.39551 -5.05649 30970 ft 481 kts 114°
2026-05-04 07:30 48.37086 -4.96307 30974 ft 480 kts 114°
2026-05-04 07:30 48.34615 -4.86978 30974 ft 480 kts 114°
2026-05-04 07:31 48.32139 -4.77665 30970 ft 480 kts 115°
2026-05-04 07:33 48.22165 -4.40533 30995 ft 480 kts 115°
2026-05-04 07:33 48.19651 -4.31265 30989 ft 480 kts 115°
2026-05-04 07:34 48.17132 -4.22008 30979 ft 479 kts 115°
2026-05-04 07:34 48.14609 -4.12779 30984 ft 479 kts 116°
2026-05-04 07:35 48.12509 -4.05125 30989 ft 478 kts 116°
2026-05-04 07:35 48.09974 -3.95923 30988 ft 478 kts 116°
2026-05-04 07:36 48.07432 -3.86727 30987 ft 478 kts 116°
2026-05-04 07:38 47.97210 -3.50101 30971 ft 477 kts 116°
2026-05-04 07:38 47.94639 -3.40976 30968 ft 477 kts 117°
2026-05-04 07:39 47.92062 -3.31863 30969 ft 477 kts 117°
2026-05-04 07:39 47.89480 -3.22770 30973 ft 476 kts 117°
2026-05-04 07:40 47.86907 -3.13741 30976 ft 476 kts 117°
2026-05-04 07:40 47.84313 -3.04673 30977 ft 476 kts 117°
2026-05-04 07:41 47.81714 -2.95618 30979 ft 476 kts 117°
2026-05-04 07:41 47.79106 -2.86570 30971 ft 476 kts 118°
2026-05-04 07:42 47.76489 -2.77522 30987 ft 476 kts 118°
2026-05-04 07:42 47.73868 -2.68493 30993 ft 476 kts 118°
2026-05-04 07:43 47.71242 -2.59474 30995 ft 476 kts 118°
2026-05-04 07:43 47.68546 -2.50523 30956 ft 473 kts 122°
2026-05-04 07:44 47.65076 -2.42332 31008 ft 468 kts 129°
2026-05-04 07:44 47.61391 -2.34325 30984 ft 470 kts 129°
2026-05-04 07:45 47.57728 -2.26303 30977 ft 470 kts 129°
2026-05-04 07:45 47.54084 -2.18297 30983 ft 468 kts 129°
2026-05-04 07:46 47.50447 -2.10317 30982 ft 468 kts 129°
2026-05-04 07:46 47.46807 -2.02355 30984 ft 467 kts 129°
2026-05-04 07:47 47.43160 -1.94407 30985 ft 468 kts 129°
2026-05-04 07:49 47.28445 -1.62566 30948 ft 471 kts 129°
2026-05-04 07:49 47.24739 -1.54603 30963 ft 472 kts 129°
2026-05-04 07:50 47.21022 -1.46639 30969 ft 472 kts 129°
2026-05-04 07:50 47.17322 -1.38735 30970 ft 472 kts 129°
2026-05-04 07:51 47.13596 -1.30798 30975 ft 472 kts 129°
2026-05-04 07:51 47.09866 -1.22877 30961 ft 472 kts 129°
2026-05-04 07:52 47.06123 -1.14949 30970 ft 472 kts 129°
2026-05-04 07:52 47.02376 -1.07037 30982 ft 473 kts 129°
2026-05-04 07:54 46.87300 -0.75425 30962 ft 474 kts 130°
2026-05-04 07:55 46.83503 -0.67520 30971 ft 475 kts 130°
2026-05-04 07:55 46.79702 -0.59628 30971 ft 476 kts 130°
2026-05-04 07:56 46.75891 -0.51738 30970 ft 476 kts 130°
2026-05-04 07:56 46.72074 -0.43857 30968 ft 476 kts 130°
2026-05-04 07:57 46.68257 -0.35995 30962 ft 475 kts 130°
2026-05-04 07:57 46.64434 -0.28144 30964 ft 475 kts 130°
2026-05-04 07:58 46.60847 -0.20046 30968 ft 478 kts 125°
2026-05-04 07:58 46.57523 -0.11679 30970 ft 478 kts 125°
2026-05-04 07:59 46.54185 -0.03322 30964 ft 478 kts 125°
2026-05-04 07:59 46.50833 0.05001 30956 ft 477 kts 125°
2026-05-04 08:00 46.47477 0.13288 30966 ft 476 kts 125°
2026-05-04 08:02 46.34024 0.46258 30966 ft 476 kts 126°
2026-05-04 08:02 46.30638 0.54494 30974 ft 477 kts 126°
2026-05-04 08:03 46.27239 0.62740 30968 ft 478 kts 126°
2026-05-04 08:03 46.23828 0.70990 30964 ft 478 kts 126°
2026-05-04 08:04 46.20417 0.79218 30965 ft 477 kts 126°
2026-05-04 08:04 46.17005 0.87421 30964 ft 477 kts 126°
2026-05-04 08:05 46.13585 0.95619 30963 ft 477 kts 126°
2026-05-04 08:05 46.10159 1.03808 30966 ft 478 kts 126°
2026-05-04 08:06 46.06720 1.12005 30967 ft 478 kts 126°
2026-05-04 08:06 46.03276 1.20188 30941 ft 478 kts 126°
2026-05-04 08:08 45.90899 1.54033 30968 ft 484 kts 117°
2026-05-04 08:11 45.79493 1.94256 30982 ft 483 kts 118°
2026-05-04 08:11 45.75666 2.07559 30974 ft 480 kts 118°
2026-05-04 08:12 45.73118 2.16375 30977 ft 479 kts 118°
2026-05-04 08:12 45.70577 2.25132 30978 ft 479 kts 118°
2026-05-04 08:13 45.67995 2.33998 30993 ft 480 kts 118°
2026-05-04 08:13 45.65436 2.42755 30972 ft 481 kts 118°
2026-05-04 08:14 45.62837 2.51615 30972 ft 484 kts 118°
2026-05-04 08:16 45.52386 2.86957 30974 ft 482 kts 118°
2026-05-04 08:16 45.49760 2.95757 30986 ft 483 kts 118°
2026-05-04 08:17 45.47119 3.04573 30987 ft 484 kts 118°
2026-05-04 08:17 45.44469 3.13394 30970 ft 485 kts 118°
2026-05-04 08:19 45.33747 3.48772 31005 ft 484 kts 119°
2026-05-04 08:20 45.31072 3.57515 31022 ft 482 kts 119°
2026-05-04 08:20 45.28389 3.66264 31021 ft 483 kts 119°
2026-05-04 08:21 45.25729 3.75036 31021 ft 486 kts 116°
2026-05-04 08:21 45.23754 3.84287 31031 ft 492 kts 110°
2026-05-04 08:22 45.22231 3.92059 31016 ft 492 kts 111°
2026-05-04 08:24 45.14581 4.29338 31033 ft 492 kts 111°
2026-05-04 08:24 45.12623 4.38609 31050 ft 489 kts 114°
2026-05-04 08:25 45.09632 4.47108 31036 ft 479 kts 128°
2026-05-04 08:25 45.05519 4.54401 31065 ft 473 kts 136°
2026-05-04 08:27 44.88055 4.82564 31041 ft 478 kts 135°
2026-05-04 08:28 44.83687 4.89629 31053 ft 478 kts 135°
2026-05-04 08:28 44.79304 4.96694 31031 ft 479 kts 135°
2026-05-04 08:29 44.74911 5.03752 31047 ft 479 kts 135°
2026-05-04 08:31 44.57330 5.31838 31060 ft 479 kts 135°
2026-05-04 08:33 44.39581 5.59912 31081 ft 482 kts 135°
2026-05-04 08:35 44.24108 5.90960 31110 ft 489 kts 128°
2026-05-04 08:35 44.20270 5.98803 31106 ft 490 kts 128°
2026-05-04 08:37 44.06800 6.26157 31110 ft 491 kts 128°
2026-05-04 08:38 44.02923 6.33985 31110 ft 492 kts 128°
2026-05-04 08:38 43.99034 6.41816 31132 ft 493 kts 128°
2026-05-04 08:40 43.83312 6.73285 31129 ft 498 kts 128°
2026-05-04 08:41 43.79345 6.81167 31126 ft 499 kts 128°
2026-05-04 08:41 43.75375 6.89041 31098 ft 499 kts 128°
2026-05-04 08:42 43.71405 6.96884 31103 ft 498 kts 128°
2026-05-04 08:42 43.67584 7.04891 31117 ft 499 kts 126°
2026-05-04 08:43 43.63864 7.12975 31095 ft 499 kts 126°
2026-05-04 08:43 43.60116 7.21043 31106 ft 499 kts 126°
2026-05-04 08:44 43.56334 7.29084 31083 ft 500 kts 126°
2026-05-04 08:46 43.41087 7.61176 31081 ft 502 kts 126°
2026-05-04 08:46 43.37251 7.69198 31079 ft 502 kts 126°
2026-05-04 08:47 43.33402 7.77228 31084 ft 503 kts 126°
2026-05-04 08:47 43.29543 7.85253 31085 ft 504 kts 126°
2026-05-04 08:48 43.25670 7.93288 31088 ft 505 kts 127°
2026-05-04 08:48 43.21788 8.01318 31070 ft 505 kts 126°
2026-05-04 08:49 43.17907 8.09327 31082 ft 505 kts 126°
2026-05-04 08:50 43.04231 8.37370 31085 ft 508 kts 126°
2026-05-04 08:51 43.00293 8.45399 31081 ft 508 kts 126°
2026-05-04 08:51 42.96350 8.53416 31081 ft 508 kts 127°
2026-05-04 08:52 42.92410 8.61409 31078 ft 507 kts 127°
2026-05-04 08:52 42.88530 8.69453 31068 ft 509 kts 122°
2026-05-04 08:54 42.75027 9.03589 31083 ft 513 kts 121°
2026-05-04 08:55 42.71616 9.12104 31086 ft 513 kts 121°
2026-05-04 08:55 42.68230 9.20563 31097 ft 512 kts 120°
2026-05-04 09:01 42.36221 10.11589 31140 ft 510 kts 126°
2026-05-04 09:01 42.32299 10.19591 31140 ft 511 kts 125°
2026-05-04 09:02 42.28388 10.27598 31143 ft 510 kts 125°
2026-05-04 09:02 42.24474 10.35594 31142 ft 510 kts 125°
2026-05-04 09:03 42.20556 10.43569 31148 ft 510 kts 125°
2026-05-04 09:03 42.16633 10.51532 31153 ft 509 kts 125°
2026-05-04 09:04 42.12709 10.59473 31157 ft 508 kts 125°
2026-05-04 09:04 42.08820 10.67326 31146 ft 507 kts 125°
2026-05-04 09:05 42.04908 10.75202 31154 ft 506 kts 125°
2026-05-04 09:05 42.00986 10.83078 31155 ft 507 kts 126°
2026-05-04 09:06 41.97054 10.90955 31159 ft 508 kts 126°
2026-05-04 09:08 41.81217 11.22473 31163 ft 512 kts 126°
2026-05-04 09:08 41.77216 11.30382 31165 ft 513 kts 126°
2026-05-04 09:09 41.73207 11.38289 31165 ft 513 kts 126°
2026-05-04 09:09 41.69198 11.46177 31164 ft 511 kts 126°
2026-05-04 09:10 41.65200 11.54021 31164 ft 510 kts 126°
2026-05-04 09:10 41.61201 11.61846 31168 ft 509 kts 126°
2026-05-04 09:11 41.57868 11.68352 31165 ft 511 kts 126°
2026-05-04 09:11 41.53843 11.76191 31176 ft 512 kts 126°
2026-05-04 09:12 41.49806 11.84034 31172 ft 513 kts 126°
2026-05-04 09:14 41.34076 12.14401 31163 ft 512 kts 126°
2026-05-04 09:14 41.30021 12.22183 31188 ft 514 kts 126°
2026-05-04 09:15 41.25937 12.29999 31190 ft 516 kts 126°
2026-05-04 09:15 41.21830 12.37838 31189 ft 518 kts 126°
2026-05-04 09:17 41.03321 12.72928 31200 ft 517 kts 126°
2026-05-04 09:18 40.99174 12.80735 31205 ft 519 kts 126°
2026-05-04 09:18 40.95015 12.88549 31194 ft 519 kts 126°
2026-05-04 09:19 40.90840 12.96338 31195 ft 518 kts 128°
2026-05-04 09:19 40.86446 13.03770 31190 ft 516 kts 130°
2026-05-04 09:20 40.81955 13.11172 31198 ft 515 kts 130°
2026-05-04 09:20 40.77478 13.18570 31190 ft 516 kts 130°
2026-05-04 09:21 40.72996 13.26001 31201 ft 518 kts 130°
2026-05-04 09:21 40.68506 13.33442 31202 ft 520 kts 130°
2026-05-04 09:22 40.63993 13.40899 31194 ft 521 kts 130°
2026-05-04 09:22 40.59474 13.48345 31201 ft 521 kts 130°
2026-05-04 09:23 40.54962 13.55762 31199 ft 518 kts 130°
2026-05-04 09:23 40.50453 13.63156 31193 ft 518 kts 130°
2026-05-04 09:25 40.32346 13.92678 31209 ft 519 kts 130°
2026-05-04 09:26 40.27812 14.00026 31201 ft 518 kts 130°
2026-05-04 09:26 40.23245 14.07334 31201 ft 518 kts 130°
2026-05-04 09:27 40.18669 14.14626 31204 ft 519 kts 130°
2026-05-04 09:27 40.14100 14.21952 31211 ft 520 kts 130°
2026-05-04 09:28 40.09541 14.29292 31206 ft 520 kts 130°
2026-05-04 09:28 40.04976 14.36619 31209 ft 520 kts 130°
2026-05-04 09:29 40.00409 14.43925 31200 ft 519 kts 130°
2026-05-04 09:29 39.95863 14.51178 31202 ft 520 kts 130°
2026-05-04 09:30 39.91286 14.58464 31204 ft 520 kts 130°
2026-05-04 09:30 39.86698 14.65752 31212 ft 520 kts 130°
2026-05-04 09:31 39.82105 14.73033 31212 ft 521 kts 130°
2026-05-04 09:31 39.77502 14.80302 31206 ft 521 kts 130°
2026-05-04 09:32 39.72884 14.87562 31206 ft 521 kts 130°
2026-05-04 09:34 39.54404 15.16473 31212 ft 520 kts 130°
2026-05-04 09:34 39.49778 15.23670 31210 ft 520 kts 130°
2026-05-04 09:35 39.45152 15.30851 31206 ft 519 kts 130°
2026-05-04 09:35 39.40522 15.38022 31207 ft 520 kts 130°
2026-05-04 09:37 39.21954 15.66615 31216 ft 520 kts 130°
2026-05-04 09:38 39.17290 15.73757 31188 ft 520 kts 130°
2026-05-04 09:38 39.12627 15.80881 31203 ft 521 kts 130°
2026-05-04 09:39 39.07952 15.88008 31207 ft 521 kts 130°
2026-05-04 09:39 39.03274 15.95123 31209 ft 521 kts 130°
2026-05-04 09:40 38.98588 16.02235 31214 ft 521 kts 130°
2026-05-04 09:40 38.93892 16.09346 31216 ft 522 kts 130°
2026-05-04 09:42 38.75014 16.37779 31215 ft 524 kts 130°
2026-05-04 09:43 38.70311 16.44933 31204 ft 525 kts 130°
2026-05-04 09:43 38.65628 16.52110 31186 ft 525 kts 130°
2026-05-04 09:44 38.60936 16.59277 31179 ft 525 kts 130°
2026-05-04 09:46 38.42087 16.87833 31186 ft 529 kts 130°
2026-05-04 09:46 38.37302 16.95042 31188 ft 529 kts 130°
2026-05-04 09:47 38.32546 17.02191 31186 ft 529 kts 130°
2026-05-04 09:49 38.13473 17.30702 31189 ft 531 kts 130°
2026-05-04 09:51 37.96631 17.55670 31200 ft 533 kts 130°
2026-05-04 09:51 37.91799 17.62797 31202 ft 533 kts 130°
2026-05-04 09:52 37.86959 17.69922 31206 ft 533 kts 130°
2026-05-04 09:52 37.82120 17.77028 31193 ft 534 kts 130°
2026-05-04 09:53 37.77266 17.84141 31196 ft 534 kts 130°
2026-05-04 09:53 37.72402 17.91253 31191 ft 535 kts 130°
2026-05-04 09:54 37.67531 17.98360 31188 ft 535 kts 130°
2026-05-04 09:54 37.62652 18.05463 31192 ft 535 kts 130°
2026-05-04 09:55 37.57771 18.12554 31212 ft 535 kts 130°
2026-05-04 09:55 37.52885 18.19637 31198 ft 535 kts 131°
2026-05-04 09:56 37.47999 18.26703 31194 ft 535 kts 131°
2026-05-04 09:56 37.43110 18.33759 31199 ft 534 kts 131°
2026-05-04 09:57 37.39055 18.39600 31203 ft 533 kts 131°
2026-05-04 09:57 37.34167 18.46626 31199 ft 534 kts 131°
2026-05-04 09:58 37.29276 18.53643 31216 ft 535 kts 131°
2026-05-04 09:58 37.23562 18.61820 31214 ft 536 kts 131°
2026-05-04 10:00 37.04653 18.88739 31213 ft 537 kts 131°
2026-05-04 10:04 36.75117 19.42677 31209 ft 541 kts 121°
2026-05-04 10:04 36.71076 19.50604 31218 ft 542 kts 121°
2026-05-04 10:05 36.67027 19.58535 31212 ft 543 kts 121°
2026-05-04 10:05 36.62964 19.66474 31210 ft 544 kts 121°
2026-05-04 10:06 36.58896 19.74405 31212 ft 544 kts 121°
2026-05-04 10:06 36.54817 19.82338 31225 ft 544 kts 121°
2026-05-04 10:08 36.40456 20.10121 31211 ft 546 kts 121°
2026-05-04 10:08 36.36332 20.18056 31215 ft 547 kts 121°
2026-05-04 10:09 36.32225 20.25942 31214 ft 548 kts 121°
2026-05-04 10:09 36.28082 20.33877 31212 ft 549 kts 121°
2026-05-04 10:10 36.23930 20.41812 31212 ft 549 kts 121°
2026-05-04 10:10 36.19772 20.49739 31232 ft 550 kts 121°
2026-05-04 10:11 36.15592 20.57691 31217 ft 552 kts 121°
2026-05-04 10:11 36.11399 20.65651 31196 ft 552 kts 122°
2026-05-04 10:12 36.07198 20.73603 31209 ft 552 kts 122°
2026-05-04 10:12 36.02997 20.81538 31237 ft 552 kts 122°
2026-05-04 10:13 35.98785 20.89477 31221 ft 553 kts 122°
2026-05-04 10:13 35.94561 20.97418 31218 ft 554 kts 122°
2026-05-04 10:14 35.90324 21.05368 31218 ft 554 kts 122°
2026-05-04 10:16 35.73271 21.37175 31221 ft 557 kts 122°
2026-05-04 10:16 35.68994 21.45106 31217 ft 556 kts 122°
2026-05-04 10:17 35.64710 21.53031 31217 ft 556 kts 122°
2026-05-04 10:19 35.47594 21.84403 31229 ft 556 kts 123°
2026-05-04 10:19 35.43260 21.92305 31229 ft 559 kts 122°
2026-05-04 10:20 35.38957 22.00258 31212 ft 560 kts 122°
2026-05-04 10:20 35.34628 22.08195 31216 ft 560 kts 123°
2026-05-04 10:21 35.30291 22.16081 31232 ft 559 kts 123°
2026-05-04 10:21 35.25935 22.23970 31219 ft 559 kts 123°
2026-05-04 10:22 35.19402 22.35776 31221 ft 559 kts 123°
2026-05-04 10:23 35.15039 22.43641 31221 ft 559 kts 123°
2026-05-04 10:25 34.97476 22.75129 31220 ft 561 kts 124°
2026-05-04 10:25 34.93093 22.82942 31231 ft 563 kts 124°
2026-05-04 10:26 34.88668 22.90814 31224 ft 563 kts 124°
2026-05-04 10:26 34.84232 22.98688 31216 ft 564 kts 124°
2026-05-04 10:27 34.79790 23.06556 31218 ft 564 kts 124°
2026-05-04 10:27 34.75345 23.14410 31220 ft 565 kts 124°
2026-05-04 10:28 34.70883 23.22277 31217 ft 565 kts 124°
2026-05-04 10:28 34.66417 23.30135 31214 ft 565 kts 124°
2026-05-04 10:29 34.61942 23.37989 31212 ft 565 kts 124°
2026-05-04 10:29 34.57464 23.45833 31210 ft 566 kts 125°
2026-05-04 10:30 34.52969 23.53689 31205 ft 567 kts 125°
2026-05-04 10:30 34.48466 23.61541 31212 ft 567 kts 125°
2026-05-04 10:31 34.43949 23.69400 31202 ft 568 kts 125°
2026-05-04 10:32 34.28109 23.96829 31206 ft 567 kts 126°
2026-05-04 10:33 34.23613 24.04576 31197 ft 567 kts 126°
2026-05-04 10:33 34.19085 24.12361 31185 ft 567 kts 126°
2026-05-04 10:34 34.14548 24.20145 31205 ft 567 kts 126°
2026-05-04 10:34 34.09999 24.27934 31203 ft 567 kts 126°
2026-05-04 10:35 34.05447 24.35714 31186 ft 568 kts 126°
2026-05-04 10:35 34.00805 24.43413 31199 ft 568 kts 131°
2026-05-04 10:36 33.95352 24.50233 31154 ft 564 kts 142°
2026-05-04 10:36 33.89449 24.56433 31191 ft 563 kts 142°
2026-05-04 10:37 33.83567 24.62656 31197 ft 563 kts 142°
2026-05-04 10:37 33.77717 24.68910 31191 ft 563 kts 142°
2026-05-04 10:39 33.57277 24.90753 31189 ft 558 kts 142°
2026-05-04 10:40 33.51488 24.96904 31181 ft 555 kts 142°
2026-05-04 10:40 33.45709 25.03033 31192 ft 554 kts 142°
2026-05-04 10:41 33.39935 25.09144 31193 ft 554 kts 142°
2026-05-04 10:41 33.34154 25.15253 31192 ft 555 kts 142°
2026-05-04 10:42 33.28357 25.21369 31194 ft 556 kts 142°
2026-05-04 10:42 33.22580 25.27452 31190 ft 557 kts 142°
2026-05-04 10:43 33.16761 25.33569 31196 ft 558 kts 142°
2026-05-04 10:45 32.93431 25.57981 31184 ft 555 kts 143°
2026-05-04 10:45 32.87632 25.64020 31186 ft 553 kts 143°
2026-05-04 10:46 32.81841 25.70041 31185 ft 552 kts 143°
2026-05-04 10:46 32.76052 25.76047 31188 ft 552 kts 143°
2026-05-04 10:47 32.71204 25.81069 31186 ft 552 kts 143°
2026-05-04 10:47 32.65452 25.87019 31180 ft 551 kts 143°
2026-05-04 10:49 32.42325 26.10834 31182 ft 550 kts 143°
2026-05-04 10:50 32.36542 26.16763 31173 ft 549 kts 143°
2026-05-04 10:52 32.13554 26.40229 31185 ft 545 kts 144°
2026-05-04 10:52 32.07814 26.46063 31182 ft 544 kts 144°
2026-05-04 10:54 31.84935 26.69217 31188 ft 543 kts 144°
2026-05-04 10:56 31.61982 26.92290 31205 ft 543 kts 145°
2026-05-04 10:57 31.56232 26.98044 31201 ft 543 kts 145°
2026-05-04 10:57 31.50479 27.03794 31201 ft 543 kts 145°
2026-05-04 10:58 31.44730 27.09531 31198 ft 543 kts 145°
2026-05-04 10:58 31.38971 27.15268 31194 ft 543 kts 145°
2026-05-04 10:59 31.33321 27.21157 31209 ft 548 kts 139°
2026-05-04 10:59 31.28435 27.28064 31208 ft 556 kts 128°
2026-05-04 11:00 31.24226 27.35530 31210 ft 556 kts 127°
2026-05-04 11:02 31.06852 27.65322 31182 ft 554 kts 129°
2026-05-04 11:05 30.73613 28.20566 31154 ft 555 kts 129°
2026-05-04 11:06 30.69180 28.27881 31150 ft 555 kts 129°
2026-05-04 11:06 30.64733 28.35207 31108 ft 554 kts 129°
2026-05-04 11:10 30.33620 28.86089 31135 ft 552 kts 130°
2026-05-04 11:12 30.15810 29.14928 31116 ft 549 kts 130°
2026-05-04 11:12 30.11397 29.22047 31125 ft 549 kts 130°
2026-05-04 11:13 30.07026 29.29270 31117 ft 549 kts 129°
2026-05-04 11:13 30.02679 29.36517 31119 ft 549 kts 129°
2026-05-04 11:14 29.98326 29.43742 31117 ft 549 kts 130°
2026-05-04 11:16 29.80818 29.72556 31117 ft 548 kts 130°
2026-05-04 11:16 29.76437 29.79736 31118 ft 548 kts 130°
2026-05-04 11:17 29.72057 29.86903 31116 ft 547 kts 130°
2026-05-04 11:19 29.54517 30.15474 31117 ft 546 kts 130°
2026-05-04 11:19 29.50131 30.22587 31122 ft 546 kts 131°
2026-05-04 11:20 29.45738 30.29701 31137 ft 546 kts 131°
2026-05-04 11:20 29.41343 30.36806 31114 ft 546 kts 131°
2026-05-04 11:22 29.23526 30.58665 31130 ft 535 kts 140°
2026-05-04 11:22 29.20935 30.61740 31132 ft 536 kts 140°
2026-05-04 11:23 29.15768 30.67880 31126 ft 536 kts 140°
2026-05-04 11:25 28.97628 30.89341 31136 ft 536 kts 140°
2026-05-04 11:25 28.92445 30.95448 31137 ft 536 kts 140°
2026-05-04 11:27 28.69170 31.22776 31136 ft 534 kts 140°
2026-05-04 11:28 28.64142 31.29021 31143 ft 535 kts 137°
2026-05-04 11:28 28.59199 31.35354 31138 ft 535 kts 137°
2026-05-04 11:29 28.54235 31.41661 31131 ft 535 kts 138°
2026-05-04 11:29 28.49251 31.47928 31146 ft 535 kts 138°
2026-05-04 11:33 28.14260 31.91604 31129 ft 533 kts 138°
2026-05-04 11:33 28.10112 31.96756 31121 ft 533 kts 138°
2026-05-04 11:34 28.05147 32.02981 31119 ft 535 kts 135°
2026-05-04 11:34 28.00863 32.09940 31096 ft 543 kts 123°
2026-05-04 11:35 27.96723 32.18706 31095 ft 544 kts 122°
2026-05-04 11:35 27.93735 32.25025 31089 ft 544 kts 123°
2026-05-04 11:36 27.90128 32.32539 31037 ft 543 kts 123°
2026-05-04 11:36 27.86510 32.40009 31062 ft 541 kts 123°
2026-05-04 11:37 27.82891 32.47461 31056 ft 541 kts 123°
2026-05-04 11:37 27.79276 32.54903 31043 ft 541 kts 123°
2026-05-04 11:38 27.75651 32.62354 31017 ft 541 kts 123°
2026-05-04 11:38 27.72027 32.69793 31034 ft 541 kts 123°
2026-05-04 11:39 27.68397 32.77228 31032 ft 541 kts 123°
2026-05-04 11:41 27.55707 33.03127 31017 ft 539 kts 123°
2026-05-04 11:41 27.52073 33.10508 31028 ft 539 kts 123°
2026-05-04 11:42 27.48435 33.17894 30999 ft 539 kts 123°
2026-05-04 11:42 27.44797 33.25262 31015 ft 538 kts 123°
2026-05-04 11:43 27.41154 33.32630 31012 ft 538 kts 123°
2026-05-04 11:43 27.37516 33.39977 31014 ft 537 kts 123°
2026-05-04 11:44 27.33875 33.47315 31002 ft 538 kts 124°
2026-05-04 11:44 27.30226 33.54661 31009 ft 539 kts 124°
2026-05-04 11:45 27.26567 33.62018 31007 ft 540 kts 124°
2026-05-04 11:45 27.22897 33.69386 30987 ft 540 kts 123°
2026-05-04 11:46 27.19226 33.76745 30986 ft 540 kts 123°
2026-05-04 11:46 27.15977 33.84368 30996 ft 544 kts 115°
2026-05-04 11:47 27.13253 33.92230 30998 ft 544 kts 115°
2026-05-04 11:47 27.10491 34.00131 30993 ft 543 kts 116°
2026-05-04 11:48 27.07665 34.08045 30998 ft 543 kts 116°
2026-05-04 11:48 27.04861 34.15856 30989 ft 543 kts 116°
2026-05-04 11:49 27.02048 34.23700 31001 ft 543 kts 116°
2026-05-04 11:49 26.99231 34.31558 30990 ft 543 kts 116°
2026-05-04 11:50 26.96409 34.39426 30985 ft 544 kts 116°
2026-05-04 11:50 26.93581 34.47298 30982 ft 544 kts 116°
2026-05-04 11:51 26.90754 34.55150 30964 ft 544 kts 117°
2026-05-04 11:51 26.87918 34.63010 30974 ft 544 kts 117°
2026-05-04 11:52 26.85079 34.70861 30971 ft 544 kts 117°
2026-05-04 11:52 26.82234 34.78714 30959 ft 544 kts 117°
2026-05-04 11:53 26.79382 34.86572 30967 ft 544 kts 117°
2026-05-04 11:53 26.76529 34.94417 30969 ft 545 kts 117°
2026-05-04 11:55 26.64983 35.25871 30947 ft 548 kts 117°
2026-05-04 11:56 26.62075 35.33758 30961 ft 549 kts 117°
2026-05-04 11:56 26.59158 35.41655 30955 ft 550 kts 117°
2026-05-04 11:57 26.56230 35.49561 30970 ft 550 kts 118°
2026-05-04 11:57 26.53241 35.57428 30968 ft 550 kts 118°
2026-05-04 11:58 26.50216 35.65281 30960 ft 551 kts 119°
2026-05-04 11:58 26.47193 35.73139 30960 ft 551 kts 118°
2026-05-04 11:59 26.44174 35.81000 30938 ft 550 kts 119°
2026-05-04 11:59 26.41159 35.88843 30952 ft 550 kts 119°
2026-05-04 12:00 26.38136 35.96684 30956 ft 550 kts 119°
2026-05-04 12:00 26.35108 36.04523 30965 ft 551 kts 119°
2026-05-04 12:01 26.32076 36.12359 30958 ft 551 kts 119°
2026-05-04 12:02 26.21454 36.39692 30940 ft 550 kts 119°
2026-05-04 12:03 26.18407 36.47497 30941 ft 550 kts 119°
2026-05-04 12:03 26.14952 36.55017 30943 ft 544 kts 125°
2026-05-04 12:04 26.11261 36.62385 30951 ft 545 kts 126°
2026-05-04 12:04 26.07585 36.69758 30945 ft 545 kts 125°
2026-05-04 12:05 26.03933 36.77153 30920 ft 546 kts 125°
2026-05-04 12:05 26.00284 36.84553 30929 ft 545 kts 125°
2026-05-04 12:06 25.96635 36.91932 30938 ft 545 kts 125°
2026-05-04 12:06 25.92982 36.99302 30924 ft 545 kts 125°
2026-05-04 12:07 25.89327 37.06663 30920 ft 544 kts 125°
2026-05-04 12:07 25.85670 37.14019 30918 ft 543 kts 125°
2026-05-04 12:08 25.82018 37.21353 30920 ft 543 kts 126°
2026-05-04 12:08 25.78364 37.28681 30917 ft 542 kts 125°
2026-05-04 12:09 25.74724 37.35990 30924 ft 541 kts 126°
2026-05-04 12:09 25.71108 37.43244 30915 ft 540 kts 126°
2026-05-04 12:10 25.67439 37.50593 30922 ft 541 kts 126°
2026-05-04 12:10 25.63783 37.57897 30933 ft 543 kts 126°
2026-05-04 12:11 25.60119 37.65218 30929 ft 544 kts 126°
2026-05-04 12:11 25.56437 37.72545 30894 ft 544 kts 126°
2026-05-04 12:12 25.52769 37.79846 30905 ft 541 kts 126°
2026-05-04 12:12 25.49114 37.87111 30907 ft 539 kts 126°
2026-05-04 12:14 25.34488 38.16042 30893 ft 541 kts 126°
2026-05-04 12:15 25.30828 38.23249 30883 ft 542 kts 126°
2026-05-04 12:15 25.27137 38.30515 30885 ft 543 kts 126°
2026-05-04 12:16 25.23436 38.37790 30888 ft 543 kts 126°
2026-05-04 12:16 25.19730 38.45049 30892 ft 542 kts 126°
2026-05-04 12:17 25.16030 38.52316 30902 ft 543 kts 126°
2026-05-04 12:17 25.12319 38.59577 30903 ft 543 kts 126°
2026-05-04 12:18 25.08602 38.66832 30890 ft 542 kts 126°
2026-05-04 12:18 25.04894 38.74070 30899 ft 542 kts 126°
2026-05-04 12:19 25.01186 38.81297 30918 ft 541 kts 125°
2026-05-04 12:19 24.97478 38.88514 30915 ft 541 kts 126°
2026-05-04 12:20 24.94390 38.94507 30923 ft 540 kts 126°
2026-05-04 12:20 24.90661 39.01682 30937 ft 540 kts 126°
2026-05-04 12:21 24.86329 39.10009 30939 ft 540 kts 126°
2026-05-04 12:21 24.82599 39.17179 30936 ft 540 kts 125°
2026-05-04 12:22 24.79469 39.23187 30944 ft 539 kts 126°
2026-05-04 12:22 24.75735 39.30346 30945 ft 539 kts 126°
2026-05-04 12:23 24.72001 39.37495 30951 ft 539 kts 125°
2026-05-04 12:23 24.68283 39.44609 30959 ft 540 kts 125°
2026-05-04 12:24 24.64530 39.51771 30968 ft 541 kts 125°
2026-05-04 12:24 24.60775 39.58936 30923 ft 541 kts 125°
2026-05-04 12:25 24.57070 39.66153 30940 ft 546 kts 121°
2026-05-04 12:25 24.54506 39.74082 30948 ft 557 kts 108°
2026-05-04 12:26 24.53382 39.82546 30940 ft 563 kts 98°
2026-05-04 12:26 24.52672 39.91096 30945 ft 563 kts 98°
2026-05-04 12:27 24.51906 39.99644 30951 ft 562 kts 99°
2026-05-04 12:27 24.51086 40.08168 30942 ft 561 kts 99°
2026-05-04 12:28 24.50249 40.16668 30945 ft 559 kts 99°
2026-05-04 12:28 24.49412 40.25145 30946 ft 558 kts 99°
2026-05-04 12:29 24.48576 40.33609 30949 ft 557 kts 99°
2026-05-04 12:29 24.47737 40.42061 30948 ft 557 kts 99°
2026-05-04 12:30 24.46894 40.50506 30946 ft 556 kts 99°
2026-05-04 12:30 24.46162 40.57808 30957 ft 556 kts 99°
2026-05-04 12:31 24.45313 40.66239 30962 ft 556 kts 99°
2026-05-04 12:31 24.44483 40.74512 30974 ft 556 kts 99°
2026-05-04 12:32 24.43198 40.87236 30961 ft 557 kts 99°
2026-05-04 12:33 24.42339 40.95679 30958 ft 557 kts 99°
2026-05-04 12:33 24.41474 41.04130 30971 ft 557 kts 99°
2026-05-04 12:34 24.40605 41.12522 30968 ft 557 kts 99°
2026-05-04 12:34 24.39715 41.20951 30977 ft 556 kts 99°
2026-05-04 12:35 24.38820 41.29377 30983 ft 556 kts 99°
2026-05-04 12:35 24.37924 41.37795 30976 ft 555 kts 99°
2026-05-04 12:36 24.37025 41.46204 30982 ft 555 kts 99°
2026-05-04 12:36 24.36122 41.54601 30983 ft 554 kts 99°
2026-05-04 12:37 24.35215 41.62992 30980 ft 554 kts 99°
2026-05-04 12:37 24.34304 41.71386 30982 ft 554 kts 99°
2026-05-04 12:38 24.33384 41.79769 30970 ft 554 kts 100°
2026-05-04 12:38 24.31772 41.87974 30983 ft 549 kts 110°
2026-05-04 12:39 24.29585 41.95997 30983 ft 549 kts 110°
2026-05-04 12:39 24.27421 42.03975 30972 ft 550 kts 110°
2026-05-04 12:40 24.25287 42.12014 30979 ft 549 kts 110°
2026-05-04 12:40 24.23165 42.20057 30973 ft 549 kts 109°
2026-05-04 12:41 24.21039 42.28086 30979 ft 549 kts 110°
2026-05-04 12:41 24.18906 42.36112 30981 ft 548 kts 110°
2026-05-04 12:42 24.16768 42.44129 30972 ft 548 kts 110°
2026-05-04 12:42 24.14630 42.52131 30980 ft 548 kts 110°
2026-05-04 12:43 24.12486 42.60135 30988 ft 548 kts 110°
2026-05-04 12:43 24.10339 42.68138 30980 ft 548 kts 110°
2026-05-04 12:44 24.08189 42.76131 30988 ft 547 kts 110°
2026-05-04 12:44 24.06035 42.84125 30982 ft 547 kts 110°
2026-05-04 12:45 24.03879 42.92107 30979 ft 547 kts 110°
2026-05-04 12:45 24.01719 43.00095 30981 ft 547 kts 110°
2026-05-04 12:46 23.99559 43.08072 30971 ft 547 kts 110°
2026-05-04 12:46 23.97398 43.16034 30974 ft 546 kts 110°
2026-05-04 12:47 23.95237 43.23980 30961 ft 545 kts 110°
2026-05-04 12:47 23.93075 43.31913 30976 ft 544 kts 110°
2026-05-04 12:48 23.90908 43.39843 30968 ft 544 kts 110°
2026-05-04 12:48 23.88740 43.47760 30968 ft 543 kts 110°
2026-05-04 12:49 23.86573 43.55657 30957 ft 543 kts 110°
2026-05-04 12:49 23.84400 43.63558 30944 ft 543 kts 110°
2026-05-04 12:50 23.82227 43.71443 30938 ft 542 kts 110°
2026-05-04 12:50 23.80051 43.79322 30931 ft 542 kts 110°
2026-05-04 12:51 23.77934 43.87222 30919 ft 544 kts 107°
2026-05-04 12:51 23.76780 43.95404 30925 ft 548 kts 96°
2026-05-04 12:52 23.76247 44.03652 30905 ft 549 kts 96°
2026-05-04 12:52 23.75683 44.11966 30909 ft 549 kts 96°
2026-05-04 12:53 23.75068 44.20279 30909 ft 550 kts 97°
2026-05-04 12:53 23.74431 44.28591 30903 ft 550 kts 97°
2026-05-04 12:54 23.73791 44.36916 30916 ft 550 kts 97°
2026-05-04 12:54 23.73151 44.45229 30901 ft 550 kts 97°
2026-05-04 12:55 23.72508 44.53537 30921 ft 549 kts 97°
2026-05-04 12:55 23.71861 44.61841 30911 ft 549 kts 97°
2026-05-04 12:56 23.71210 44.70129 30909 ft 548 kts 97°
2026-05-04 12:56 23.70557 44.78397 30914 ft 547 kts 97°
2026-05-04 12:57 23.69899 44.86668 30902 ft 547 kts 97°
2026-05-04 12:57 23.69235 44.94932 30930 ft 547 kts 97°
2026-05-04 12:58 23.68564 45.03203 30910 ft 548 kts 97°
2026-05-04 12:58 23.67890 45.11477 30910 ft 547 kts 97°
2026-05-04 12:59 23.67212 45.19734 30911 ft 547 kts 97°
2026-05-04 12:59 23.66532 45.27996 30898 ft 546 kts 97°
2026-05-04 13:00 23.65850 45.36245 30898 ft 546 kts 97°
2026-05-04 13:00 23.65165 45.44489 30895 ft 546 kts 97°
2026-05-04 13:01 23.64478 45.52688 30895 ft 547 kts 97°
2026-05-04 13:01 23.63783 45.60935 30879 ft 545 kts 97°
2026-05-04 13:02 23.63088 45.69152 30878 ft 544 kts 97°
2026-05-04 13:02 23.62389 45.77348 30873 ft 543 kts 97°
2026-05-04 13:03 23.61688 45.85539 30873 ft 542 kts 97°
2026-05-04 13:03 23.60983 45.93718 30881 ft 542 kts 97°
2026-05-04 13:04 23.60274 46.01900 30872 ft 542 kts 97°
2026-05-04 13:04 23.59560 46.10075 30884 ft 542 kts 97°
2026-05-04 13:05 23.58842 46.18261 30883 ft 542 kts 97°
2026-05-04 13:05 23.58120 46.26440 30879 ft 542 kts 97°
2026-05-04 13:06 23.57393 46.34628 30882 ft 542 kts 97°
2026-05-04 13:06 23.56663 46.42798 30887 ft 542 kts 97°
2026-05-04 13:07 23.55929 46.50970 30880 ft 542 kts 97°
2026-05-04 13:07 23.55185 46.59146 30861 ft 541 kts 97°
2026-05-04 13:08 23.54433 46.67287 30865 ft 539 kts 97°
2026-05-04 13:08 23.53680 46.75390 30863 ft 537 kts 97°
2026-05-04 13:09 23.53052 46.82120 30855 ft 537 kts 97°
2026-05-04 13:09 23.52171 46.91530 30854 ft 537 kts 97°
2026-05-04 13:10 23.51409 46.99622 30850 ft 537 kts 97°
2026-05-04 13:10 23.50766 47.06406 30838 ft 538 kts 97°
2026-05-04 13:11 23.49994 47.14520 30833 ft 538 kts 97°
2026-05-04 13:11 23.49218 47.22627 30827 ft 537 kts 97°
2026-05-04 13:12 23.48439 47.30715 30825 ft 536 kts 97°
2026-05-04 13:12 23.47657 47.38793 30818 ft 536 kts 97°
2026-05-04 13:13 23.46874 47.46854 30815 ft 535 kts 97°
2026-05-04 13:13 23.46087 47.54910 30815 ft 535 kts 97°
2026-05-04 13:14 23.45302 47.62962 30811 ft 535 kts 97°
2026-05-04 13:14 23.44515 47.71022 30796 ft 535 kts 97°
2026-05-04 13:15 23.43725 47.79064 30798 ft 534 kts 97°
2026-05-04 13:15 23.42929 47.87113 30795 ft 534 kts 98°
2026-05-04 13:16 23.42130 47.95149 30777 ft 534 kts 98°
2026-05-04 13:16 23.41327 48.03190 30787 ft 534 kts 98°
2026-05-04 13:17 23.40520 48.11228 30776 ft 535 kts 98°
2026-05-04 13:17 23.39707 48.19280 30766 ft 535 kts 98°
2026-05-04 13:18 23.38890 48.27335 30759 ft 535 kts 98°
2026-05-04 13:18 23.38113 48.35380 30755 ft 535 kts 95°
2026-05-04 13:19 23.37762 48.43421 30759 ft 535 kts 93°
2026-05-04 13:19 23.37488 48.51526 30759 ft 536 kts 94°
2026-05-04 13:20 23.37185 48.59623 30764 ft 536 kts 94°
2026-05-04 13:20 23.36857 48.67613 30758 ft 536 kts 94°
2026-05-04 13:20 23.36703 48.71633 29362 ft 524 kts 94°
2026-05-04 13:21 23.36487 48.75898 26669 ft 579 kts 94°
2026-05-04 13:21 23.36474 48.76188 26606 ft 578 kts 94°
2026-05-04 13:22 23.36369 48.78757 26325 ft 565 kts 93°
2026-05-04 13:22 23.36242 48.82774 27136 ft 504 kts 93°
2026-05-04 13:23 23.36101 48.86574 27221 ft 502 kts 94°
2026-05-04 13:23 23.35923 48.90386 27474 ft 509 kts 94°
2026-05-04 13:23 23.35738 48.94253 27727 ft 514 kts 94°
2026-05-04 13:23 23.35559 48.98167 27993 ft 520 kts 94°
2026-05-04 13:24 23.35388 49.02114 28273 ft 524 kts 94°
2026-05-04 13:24 23.35203 49.06086 28552 ft 527 kts 95°
2026-05-04 13:24 23.34793 49.10052 28823 ft 529 kts 100°
2026-05-04 13:25 23.33627 49.17997 29396 ft 534 kts 101°
2026-05-04 13:25 23.33020 49.21992 29692 ft 536 kts 101°
2026-05-04 13:25 23.32417 49.25999 29920 ft 537 kts 101°
2026-05-04 13:25 23.31821 49.30018 30150 ft 539 kts 101°
2026-05-04 13:26 23.31232 49.34043 30391 ft 540 kts 101°
2026-05-04 13:26 23.30646 49.38083 30559 ft 542 kts 101°
2026-05-04 13:26 23.29481 49.46148 30692 ft 535 kts 101°
2026-05-04 13:27 23.28327 49.54100 30755 ft 533 kts 101°
2026-05-04 13:27 23.27170 49.62020 30756 ft 534 kts 101°
2026-05-04 13:28 23.25997 49.70005 30751 ft 535 kts 101°
2026-05-04 13:28 23.24820 49.77996 30747 ft 535 kts 101°
2026-05-04 13:29 23.23640 49.85982 30747 ft 535 kts 101°
2026-05-04 13:29 23.22455 49.93972 30749 ft 535 kts 101°
2026-05-04 13:30 23.21268 50.01949 30748 ft 534 kts 101°
2026-05-04 13:30 23.20078 50.09912 30745 ft 533 kts 101°
2026-05-04 13:31 23.18887 50.17858 30748 ft 532 kts 101°
2026-05-04 13:31 23.17692 50.25799 30755 ft 532 kts 101°
2026-05-04 13:32 23.16495 50.33728 30753 ft 532 kts 101°
2026-05-04 13:32 23.15293 50.41662 30752 ft 532 kts 101°
2026-05-04 13:33 23.14086 50.49604 30752 ft 533 kts 101°
2026-05-04 13:33 23.12875 50.57543 30750 ft 532 kts 101°
2026-05-04 13:34 23.11662 50.65469 30745 ft 532 kts 101°
2026-05-04 13:34 23.10444 50.73392 30749 ft 532 kts 101°
2026-05-04 13:35 23.08621 50.85211 30752 ft 531 kts 101°
2026-05-04 13:36 23.07394 50.93131 30746 ft 532 kts 101°
2026-05-04 13:36 23.06163 51.01052 30753 ft 533 kts 101°
2026-05-04 13:37 23.04925 51.08988 30748 ft 533 kts 101°
2026-05-04 13:37 23.03684 51.16915 30746 ft 532 kts 101°
2026-05-04 13:38 23.02442 51.24831 30748 ft 531 kts 101°
2026-05-04 13:38 23.01196 51.32738 30755 ft 531 kts 101°
2026-05-04 13:39 22.99948 51.40633 30749 ft 531 kts 101°
2026-05-04 13:39 22.98695 51.48529 30750 ft 531 kts 101°
2026-05-04 13:40 22.97438 51.56431 30751 ft 531 kts 101°
2026-05-04 13:40 22.96175 51.64338 30749 ft 532 kts 101°
2026-05-04 13:41 22.94918 51.72191 30753 ft 532 kts 101°
2026-05-04 13:41 22.93647 51.80095 30749 ft 532 kts 101°
2026-05-04 13:42 22.91733 51.91963 30751 ft 533 kts 101°
2026-05-04 13:42 22.90451 51.99871 30752 ft 533 kts 101°
2026-05-04 13:43 22.89165 52.07788 30752 ft 533 kts 101°
2026-05-04 13:43 22.87873 52.15708 30753 ft 533 kts 101°
2026-05-04 13:44 22.86577 52.23632 30751 ft 533 kts 101°
2026-05-04 13:44 22.85279 52.31540 30754 ft 533 kts 101°
2026-05-04 13:45 22.83977 52.39451 30754 ft 533 kts 101°
2026-05-04 13:45 22.82685 52.47349 30752 ft 533 kts 100°
2026-05-04 13:46 22.82122 52.55357 30749 ft 533 kts 92°
2026-05-04 13:46 22.81986 52.63405 30754 ft 534 kts 91°
2026-05-04 13:47 22.81917 52.67417 30233 ft 534 kts 91°
2026-05-04 13:47 22.81840 52.71401 31019 ft 511 kts 92°
2026-05-04 13:47 22.81747 52.75276 30977 ft 522 kts 91°
2026-05-04 13:47 22.81671 52.79271 30624 ft 536 kts 92°
2026-05-04 13:48 22.81447 52.87345 30739 ft 535 kts 92°
2026-05-04 13:48 22.81200 52.95416 30758 ft 536 kts 92°
2026-05-04 13:49 22.80966 53.03486 30748 ft 536 kts 92°
2026-05-04 13:49 22.80739 53.11552 30751 ft 535 kts 92°
2026-05-04 13:50 22.80510 53.19615 30744 ft 535 kts 92°
2026-05-04 13:50 22.80276 53.27664 30752 ft 534 kts 92°
2026-05-04 13:51 22.80037 53.35717 30748 ft 534 kts 92°
2026-05-04 13:51 22.79794 53.43759 30746 ft 534 kts 92°
2026-05-04 13:52 22.79421 53.55849 30746 ft 535 kts 92°
2026-05-04 13:53 22.79169 53.63885 30748 ft 535 kts 92°
2026-05-04 13:53 22.78911 53.71960 30743 ft 535 kts 92°
2026-05-04 13:54 22.78517 53.84045 30746 ft 535 kts 92°
2026-05-04 13:55 22.78151 53.96084 30737 ft 535 kts 89°
2026-05-04 13:55 22.78821 54.04096 30737 ft 534 kts 78°
2026-05-04 13:55 22.79614 54.08023 30748 ft 533 kts 76°
2026-05-04 13:56 22.81282 54.15854 30745 ft 534 kts 76°
2026-05-04 13:57 22.83449 54.26307 30741 ft 534 kts 77°
2026-05-04 13:58 22.86522 54.41585 30557 ft 503 kts 77°
2026-05-04 13:58 22.87993 54.48921 30292 ft 494 kts 77°
2026-05-04 13:58 22.88732 54.52605 30018 ft 494 kts 77°
2026-05-04 13:59 22.89452 54.56197 29623 ft 495 kts 77°
2026-05-04 13:59 22.90185 54.59858 29208 ft 496 kts 77°
2026-05-04 13:59 22.91644 54.67167 28501 ft 495 kts 77°
2026-05-04 14:00 22.92371 54.70815 28124 ft 495 kts 77°
2026-05-04 14:00 22.93825 54.78128 27295 ft 496 kts 77°
2026-05-04 14:00 22.94550 54.81782 26896 ft 496 kts 77°
2026-05-04 14:01 22.95275 54.85438 26489 ft 496 kts 77°
2026-05-04 14:01 22.95999 54.89096 26080 ft 496 kts 77°
2026-05-04 14:01 22.97444 54.96409 25232 ft 495 kts 77°
2026-05-04 14:02 22.98164 55.00058 24785 ft 495 kts 77°
2026-05-04 14:02 22.98883 55.03713 24324 ft 495 kts 77°
2026-05-04 14:02 22.99602 55.07368 23886 ft 495 kts 78°
2026-05-04 14:02 23.00321 55.11025 23426 ft 495 kts 78°
2026-05-04 14:03 23.01037 55.14676 22857 ft 495 kts 77°
2026-05-04 14:03 23.01871 55.18278 22148 ft 491 kts 69°
2026-05-04 14:03 23.03540 55.21473 21897 ft 489 kts 50°
2026-05-04 14:03 23.05965 55.24029 21769 ft 485 kts 36°
2026-05-04 14:04 23.11923 55.27088 21770 ft 472 kts 12°
2026-05-04 14:04 23.15122 55.27954 21762 ft 475 kts 12°
2026-05-04 14:04 23.18315 55.28813 21749 ft 474 kts 12°
2026-05-04 14:05 23.24691 55.30594 21745 ft 473 kts 12°
2026-05-04 14:05 23.27874 55.31516 21764 ft 473 kts 13°
2026-05-04 14:05 23.31048 55.32446 21765 ft 473 kts 13°
2026-05-04 14:06 23.34223 55.33381 21755 ft 473 kts 13°
2026-05-04 14:06 23.37405 55.34319 21767 ft 473 kts 13°
2026-05-04 14:06 23.40580 55.35254 21765 ft 473 kts 13°
2026-05-04 14:06 23.43761 55.36191 21768 ft 473 kts 13°
2026-05-04 14:07 23.46940 55.37127 21762 ft 474 kts 13°
2026-05-04 14:07 23.50126 55.38065 21764 ft 474 kts 13°
2026-05-04 14:07 23.53306 55.39002 21774 ft 474 kts 13°
2026-05-04 14:07 23.56488 55.39945 21759 ft 474 kts 13°
2026-05-04 14:08 23.59678 55.40893 21761 ft 474 kts 13°
2026-05-04 14:08 23.62862 55.41841 21762 ft 474 kts 13°
2026-05-04 14:08 23.66044 55.42789 21764 ft 474 kts 13°
2026-05-04 14:08 23.69226 55.43737 21758 ft 474 kts 13°
2026-05-04 14:09 23.75480 55.45603 21270 ft 457 kts 13°
2026-05-04 14:09 23.78518 55.46508 20776 ft 449 kts 13°
2026-05-04 14:10 23.84454 55.48277 19825 ft 437 kts 13°
2026-05-04 14:10 23.87374 55.49147 19354 ft 432 kts 13°
2026-05-04 14:10 23.90261 55.50005 18909 ft 428 kts 14°
2026-05-04 14:10 23.93116 55.50853 18452 ft 423 kts 13°
2026-05-04 14:11 23.95941 55.51693 18015 ft 417 kts 14°
2026-05-04 14:11 24.01253 55.54044 17017 ft 410 kts 29°
2026-05-04 14:11 24.03637 55.55778 16837 ft 416 kts 36°
2026-05-04 14:12 24.05839 55.57854 16801 ft 418 kts 40°
2026-05-04 14:12 24.07972 55.59991 16781 ft 414 kts 40°
2026-05-04 14:12 24.12204 55.64244 16803 ft 414 kts 40°
2026-05-04 14:13 24.14333 55.66372 16802 ft 414 kts 40°
2026-05-04 14:13 24.16466 55.68494 16783 ft 415 kts 40°
2026-05-04 14:13 24.18604 55.70618 16808 ft 415 kts 40°
2026-05-04 14:13 24.20742 55.72740 16805 ft 415 kts 40°
2026-05-04 14:14 24.22881 55.74863 16786 ft 415 kts 40°
2026-05-04 14:14 24.27155 55.79106 16804 ft 414 kts 40°
2026-05-04 14:14 24.29258 55.81197 16803 ft 414 kts 40°
2026-05-04 14:15 24.33520 55.85435 16799 ft 413 kts 40°
2026-05-04 14:15 24.37811 55.89705 15837 ft 421 kts 39°
2026-05-04 14:16 24.42091 55.93979 14435 ft 417 kts 40°
2026-05-04 14:16 24.44227 55.96112 13764 ft 415 kts 39°
2026-05-04 14:17 24.48900 55.99697 12269 ft 406 kts 25°
2026-05-04 14:17 24.51443 56.01015 11561 ft 403 kts 22°
2026-05-04 14:17 24.56485 56.03622 10433 ft 392 kts 23°
2026-05-04 14:18 24.58899 56.04892 10258 ft 379 kts 22°
2026-05-04 14:18 24.63646 56.07391 10040 ft 376 kts 23°
2026-05-04 14:19 24.68338 56.09868 10046 ft 375 kts 23°
2026-05-04 14:19 24.70691 56.11111 10037 ft 374 kts 23°
2026-05-04 14:19 24.73034 56.12348 10031 ft 373 kts 23°
2026-05-04 14:19 24.75373 56.13584 10023 ft 373 kts 23°
2026-05-04 14:20 24.77746 56.14653 10015 ft 367 kts 11°
2026-05-04 14:20 24.80290 56.14836 10043 ft 368 kts 352°
2026-05-04 14:20 24.82758 56.14161 10014 ft 364 kts 336°
2026-05-04 14:21 24.87364 56.11798 10011 ft 367 kts 334°
2026-05-04 14:21 24.89685 56.10625 10011 ft 368 kts 335°
2026-05-04 14:21 24.92015 56.09469 10009 ft 365 kts 335°
2026-05-04 14:21 24.94283 56.08309 9859 ft 352 kts 330°
2026-05-04 14:22 24.96131 56.06671 9713 ft 328 kts 310°
2026-05-04 14:22 24.97298 56.04639 9572 ft 304 kts 297°
2026-05-04 14:22 24.98092 56.02552 9320 ft 287 kts 292°
2026-05-04 14:22 24.98741 56.00523 8993 ft 274 kts 290°
2026-05-04 14:23 24.99926 55.96659 7561 ft 276 kts 290°
2026-05-04 14:23 25.00550 55.94628 6755 ft 285 kts 290°
2026-05-04 14:23 25.01171 55.92609 6376 ft 269 kts 290°
2026-05-04 14:24 25.01770 55.90674 6216 ft 271 kts 290°
2026-05-04 14:24 25.02389 55.88684 6095 ft 275 kts 291°
2026-05-04 14:24 25.02998 55.86721 6021 ft 265 kts 291°
2026-05-04 14:24 25.03587 55.84830 5902 ft 259 kts 290°
2026-05-04 14:25 25.04169 55.82966 5312 ft 258 kts 290°
2026-05-04 14:25 25.05365 55.79132 3457 ft 264 kts 289°
2026-05-04 14:25 25.05936 55.77302 3269 ft 242 kts 289°
2026-05-04 14:26 25.06490 55.75517 3059 ft 249 kts 289°
2026-05-04 14:26 25.07041 55.73748 3036 ft 238 kts 289°
2026-05-04 14:26 25.07569 55.72050 2998 ft 230 kts 288°
2026-05-04 14:26 25.08089 55.70380 3011 ft 228 kts 290°
2026-05-04 14:27 25.08596 55.68743 3000 ft 227 kts 290°
2026-05-04 14:27 25.09114 55.67084 3032 ft 230 kts 290°
2026-05-04 14:27 25.09635 55.65408 3024 ft 231 kts 291°
2026-05-04 14:27 25.10178 55.63664 3021 ft 249 kts 290°
2026-05-04 14:28 25.10753 55.61896 3002 ft 244 kts 296°
2026-05-04 14:28 25.11751 55.60370 3019 ft 253 kts 311°
2026-05-04 14:28 25.12850 55.58838 3020 ft 254 kts 305°
2026-05-04 14:28 25.13813 55.57189 2992 ft 249 kts 302°
2026-05-04 14:29 25.15626 55.53892 2865 ft 256 kts 302°
2026-05-04 14:29 25.17447 55.50600 2194 ft 241 kts 302°
2026-05-04 14:30 25.18286 55.49084 1893 ft 223 kts 302°
2026-05-04 14:30 25.19064 55.47683 1631 ft 206 kts 301°
2026-05-04 14:30 25.20459 55.45158 1183 ft 189 kts 300°
2026-05-04 14:31 25.21141 55.43924 956 ft 187 kts 303°
2026-05-04 14:31 25.22304 55.41830 496 ft 124 kts 298°
2026-05-04 14:32 25.23304 55.40040 226 ft 143 kts 295°
2026-05-04 14:32 25.23812 55.39124 41 ft 133 kts 295°
2026-05-04 14:32 25.24215 55.38350 31 ft 96 kts 302°
2026-05-04 14:32 25.24472 55.37888 29 ft 45 kts 302°
2026-05-04 14:33 25.24545 55.37757 27 ft 7 kts 299°
2026-05-04 14:33 25.24577 55.37683 27 ft 13 kts 291°
2026-05-04 14:33 25.24602 55.37566 27 ft 18 kts 280°
2026-05-04 14:33 25.24614 55.37425 27 ft 12 kts 272°
2026-05-04 14:34 25.24616 55.37363 27 ft 9 kts 272°
2026-05-04 14:34 25.24637 55.37246 26 ft 19 kts 295°
2026-05-04 14:34 25.24704 55.37118 27 ft 19 kts 301°
2026-05-04 14:34 25.24752 55.37032 27 ft 11 kts 302°
2026-05-04 14:35 25.24794 55.36958 27 ft 11 kts 298°
2026-05-04 14:35 25.24785 55.36877 26 ft 12 kts 230°
2026-05-04 14:35 25.24758 55.36851 26 ft 0 kts 216°
2026-05-04 14:35 25.24752 55.36847 26 ft 1 kts 216°
2026-05-04 14:36 25.24728 55.36828 26 ft 9 kts 213°
2026-05-04 14:36 25.24652 55.36776 30 ft 17 kts 211°
2026-05-04 14:36 25.24541 55.36702 29 ft 19 kts 211°
2026-05-04 14:36 25.24456 55.36592 29 ft 19 kts 254°
2026-05-04 14:37 25.24478 55.36456 29 ft 17 kts 298°
2026-05-04 14:37 25.24533 55.36354 30 ft 1 kts 301°
2026-05-04 14:37 25.24538 55.36345 29 ft 5 kts 301°
2026-05-04 14:37 25.24567 55.36295 29 ft 6 kts 301°
2026-05-04 14:38 25.24570 55.36288 30 ft 0 kts 301°
2026-05-04 14:38 25.24573 55.36284 30 ft 1 kts 301°
2026-05-04 14:38 25.24595 55.36245 29 ft 12 kts 303°
2026-05-04 14:38 25.24638 55.36174 26 ft 6 kts 311°
2026-05-04 14:39 25.24653 55.36171 29 ft 5 kts
2026-05-04 14:39 25.24681 55.36203 27 ft 6 kts 50°
2026-05-04 14:39 25.24700 55.36222 30 ft 0 kts 36°
2026-05-04 14:40 25.24703 55.36225 30 ft 0 kts 38°